HAZ148 KLAX-RJTT

Flight info

Callsign HAZ148
Flight time 11h 24m
Altitude 34000
Route SUMMR2 MCKEY DCT LIBBO DCT BRINY DCT BOARS DCT AMAKR DCT BOXER DCT FULMR DCT FASEL DCT 52N140W 56N150W/N0491F360 DCT CUDDA DCT ALUFF DCT POOFF DCT HEDMI/N0499F380 M523 IPGUD Y800 ESNIP Y810 AKRIT Y807 POLIX
Aircraft A359/H-SDE2E3GHIJ3J4J5LM1ORWXY/LB1D1

Departure

Time 2026-04-26 05:30
Airport Los Angeles International Airport (KLAX)

Arrival

Time 2026-04-26 16:55
Airport Tokyo Haneda International Airport (RJTT)
Time Latitude Longitude Altitude Speed Heading
2026-04-26 04:34 33.94395 -118.41131 101 ft 0 kts 85°
2026-04-26 05:20 33.94394 -118.41143 102 ft 2 kts 84°
2026-04-26 05:20 33.94392 -118.41163 101 ft 2 kts 81°
2026-04-26 05:20 33.94389 -118.41182 99 ft 2 kts 77°
2026-04-26 05:21 33.94385 -118.41201 101 ft 2 kts 69°
2026-04-26 05:21 33.94377 -118.41219 100 ft 2 kts 51°
2026-04-26 05:21 33.94365 -118.41232 100 ft 2 kts 14°
2026-04-26 05:21 33.94351 -118.41233 99 ft 1 kts 354°
2026-04-26 05:22 33.94349 -118.41233 99 ft 0 kts 353°
2026-04-26 05:24 33.94351 -118.41233 101 ft 1 kts 353°
2026-04-26 05:24 33.94371 -118.41236 102 ft 6 kts 353°
2026-04-26 05:24 33.94427 -118.41245 102 ft 11 kts 353°
2026-04-26 05:24 33.94515 -118.41259 102 ft 14 kts 353°
2026-04-26 05:25 33.94609 -118.41272 102 ft 13 kts 353°
2026-04-26 05:25 33.94699 -118.41285 104 ft 13 kts 352°
2026-04-26 05:25 33.94776 -118.41276 105 ft 10 kts 35°
2026-04-26 05:25 33.94800 -118.41207 106 ft 9 kts 79°
2026-04-26 05:26 33.94810 -118.41118 106 ft 13 kts 83°
2026-04-26 05:26 33.94822 -118.40994 107 ft 17 kts 83°
2026-04-26 05:26 33.94839 -118.40833 106 ft 21 kts 84°
2026-04-26 05:26 33.94858 -118.40641 106 ft 24 kts 83°
2026-04-26 05:27 33.94880 -118.40440 106 ft 24 kts 83°
2026-04-26 05:27 33.94899 -118.40266 106 ft 19 kts 82°
2026-04-26 05:27 33.94911 -118.40117 105 ft 16 kts 83°
2026-04-26 05:27 33.94924 -118.40012 105 ft 11 kts 81°
2026-04-26 05:28 33.94953 -118.39931 107 ft 9 kts 42°
2026-04-26 05:28 33.94984 -118.39915 111 ft 1 kts 13°
2026-04-26 05:28 33.94985 -118.39915 111 ft 0 kts 13°
2026-04-26 05:28 33.95023 -118.39924 112 ft 9 kts 329°
2026-04-26 05:29 33.95038 -118.39982 111 ft 7 kts 271°
2026-04-26 05:29 33.95034 -118.40037 112 ft 6 kts 264°
2026-04-26 05:29 33.95014 -118.40262 113 ft 58 kts 262°
2026-04-26 05:29 33.94936 -118.41021 114 ft 121 kts 263°
2026-04-26 05:30 33.94814 -118.42227 132 ft 171 kts 263°
2026-04-26 05:30 33.94652 -118.43746 594 ft 187 kts 261°
2026-04-26 05:30 33.94460 -118.45260 1433 ft 180 kts 261°
2026-04-26 05:30 33.94310 -118.46770 1811 ft 187 kts 263°
2026-04-26 05:31 33.94220 -118.48399 1976 ft 203 kts 267°
2026-04-26 05:31 33.94178 -118.50173 2130 ft 222 kts 268°
2026-04-26 05:31 33.94112 -118.52108 2309 ft 240 kts 265°
2026-04-26 05:31 33.93955 -118.54153 2707 ft 248 kts 264°
2026-04-26 05:32 33.93778 -118.56229 3254 ft 250 kts 263°
2026-04-26 05:32 33.93602 -118.58347 3830 ft 252 kts 264°
2026-04-26 05:32 33.93430 -118.60455 4392 ft 253 kts 264°
2026-04-26 05:32 33.93263 -118.62540 4962 ft 254 kts 264°
2026-04-26 05:33 33.93094 -118.64668 5504 ft 256 kts 264°
2026-04-26 05:33 33.92927 -118.66809 6043 ft 258 kts 264°
2026-04-26 05:33 33.92759 -118.68973 6563 ft 260 kts 264°
2026-04-26 05:33 33.92590 -118.71147 7092 ft 262 kts 263°
2026-04-26 05:34 33.92421 -118.73334 7650 ft 263 kts 263°
2026-04-26 05:34 33.92249 -118.75529 8200 ft 264 kts 263°
2026-04-26 05:34 33.92076 -118.77739 8750 ft 266 kts 263°
2026-04-26 05:34 33.91902 -118.79956 9318 ft 268 kts 263°
2026-04-26 05:35 33.91729 -118.82194 9880 ft 269 kts 263°
2026-04-26 05:35 33.91675 -118.84473 10260 ft 278 kts 269°
2026-04-26 05:35 33.91729 -118.86852 10469 ft 291 kts 270°
2026-04-26 05:35 33.91808 -118.89347 10667 ft 305 kts 270°
2026-04-26 05:36 33.91891 -118.91945 10870 ft 317 kts 270°
2026-04-26 05:36 33.91976 -118.94650 11072 ft 329 kts 270°
2026-04-26 05:36 33.92063 -118.97455 11269 ft 341 kts 270°
2026-04-26 05:36 33.92221 -119.00347 11439 ft 352 kts 277°
2026-04-26 05:37 33.92987 -119.03192 11610 ft 366 kts 295°
2026-04-26 05:37 33.94289 -119.05862 11969 ft 372 kts 299°
2026-04-26 05:37 33.95677 -119.08503 12392 ft 374 kts 299°
2026-04-26 05:37 33.97071 -119.11156 12822 ft 376 kts 299°
2026-04-26 05:38 33.98465 -119.13831 13259 ft 378 kts 299°
2026-04-26 05:38 33.99875 -119.16517 13690 ft 381 kts 301°
2026-04-26 05:38 34.01565 -119.18996 14033 ft 388 kts 313°
2026-04-26 05:38 34.03681 -119.21054 14417 ft 392 kts 320°
2026-04-26 05:39 34.05907 -119.22966 14813 ft 394 kts 321°
2026-04-26 05:39 34.08155 -119.24873 15174 ft 396 kts 321°
2026-04-26 05:39 34.10411 -119.26796 15531 ft 398 kts 320°
2026-04-26 05:39 34.12673 -119.28731 15906 ft 399 kts 320°
2026-04-26 05:40 34.14941 -119.30678 16282 ft 401 kts 320°
2026-04-26 05:40 34.16478 -119.32000 16539 ft 402 kts 320°
2026-04-26 05:40 34.18728 -119.33938 16887 ft 404 kts 320°
2026-04-26 05:40 34.21051 -119.35940 17260 ft 405 kts 320°
2026-04-26 05:41 34.23348 -119.37922 17615 ft 407 kts 320°
2026-04-26 05:41 34.25624 -119.39888 17959 ft 409 kts 320°
2026-04-26 05:41 34.27948 -119.41897 18302 ft 411 kts 320°
2026-04-26 05:41 34.30306 -119.43937 18605 ft 412 kts 320°
2026-04-26 05:42 34.32612 -119.45933 18901 ft 414 kts 320°
2026-04-26 05:42 34.34961 -119.47967 19207 ft 416 kts 320°
2026-04-26 05:42 34.37317 -119.50010 19492 ft 418 kts 320°
2026-04-26 05:42 34.39695 -119.52111 19822 ft 418 kts 318°
2026-04-26 05:43 34.41832 -119.54415 20141 ft 416 kts 310°
2026-04-26 05:43 34.43764 -119.57014 20476 ft 416 kts 307°
2026-04-26 05:43 34.45645 -119.59685 20787 ft 417 kts 307°
2026-04-26 05:43 34.47527 -119.62373 21115 ft 419 kts 307°
2026-04-26 05:44 34.49419 -119.65071 21411 ft 421 kts 307°
2026-04-26 05:44 34.51321 -119.67778 21736 ft 423 kts 307°
2026-04-26 05:44 34.53233 -119.70499 22064 ft 424 kts 307°
2026-04-26 05:44 34.55153 -119.73233 22396 ft 426 kts 307°
2026-04-26 05:45 34.57080 -119.75974 22706 ft 428 kts 307°
2026-04-26 05:45 34.59019 -119.78736 23008 ft 431 kts 307°
2026-04-26 05:45 34.60964 -119.81512 23343 ft 432 kts 307°
2026-04-26 05:45 34.62916 -119.84300 23638 ft 434 kts 307°
2026-04-26 05:46 34.64875 -119.87098 23896 ft 437 kts 307°
2026-04-26 05:46 34.66846 -119.89916 24158 ft 438 kts 307°
2026-04-26 05:46 34.68822 -119.92743 24417 ft 440 kts 307°
2026-04-26 05:46 34.70808 -119.95586 24694 ft 442 kts 307°
2026-04-26 05:47 34.72801 -119.98441 24965 ft 444 kts 307°
2026-04-26 05:47 34.74802 -120.01310 25217 ft 446 kts 307°
2026-04-26 05:47 34.76809 -120.04192 25493 ft 447 kts 307°
2026-04-26 05:47 34.78822 -120.07083 25770 ft 449 kts 307°
2026-04-26 05:48 34.80844 -120.09988 26025 ft 451 kts 307°
2026-04-26 05:48 34.82875 -120.12910 26274 ft 453 kts 307°
2026-04-26 05:48 34.84908 -120.15836 26540 ft 454 kts 307°
2026-04-26 05:48 34.86953 -120.18784 26810 ft 456 kts 307°
2026-04-26 05:49 34.89004 -120.21742 27064 ft 458 kts 307°
2026-04-26 05:49 34.93131 -120.27702 27537 ft 462 kts 307°
2026-04-26 05:49 34.95205 -120.30703 27791 ft 464 kts 307°
2026-04-26 05:50 34.97286 -120.33715 28045 ft 465 kts 307°
2026-04-26 05:50 34.99374 -120.36739 28237 ft 467 kts 307°
2026-04-26 05:50 35.01470 -120.39776 28455 ft 469 kts 307°
2026-04-26 05:50 35.03574 -120.42829 28682 ft 470 kts 307°
2026-04-26 05:51 35.05654 -120.45849 28929 ft 471 kts 307°
2026-04-26 05:51 35.07760 -120.48909 29229 ft 471 kts 307°
2026-04-26 05:51 35.09864 -120.51971 29522 ft 470 kts 307°
2026-04-26 05:51 35.11967 -120.55032 29822 ft 470 kts 307°
2026-04-26 05:52 35.14093 -120.58132 30118 ft 470 kts 307°
2026-04-26 05:52 35.16163 -120.61152 30321 ft 470 kts 307°
2026-04-26 05:52 35.18254 -120.64207 30557 ft 469 kts 307°
2026-04-26 05:52 35.20344 -120.67261 30804 ft 468 kts 307°
2026-04-26 05:53 35.22434 -120.70318 31043 ft 468 kts 307°
2026-04-26 05:53 35.24526 -120.73383 31232 ft 469 kts 307°
2026-04-26 05:53 35.26389 -120.76112 31424 ft 468 kts 307°
2026-04-26 05:53 35.28468 -120.79163 31650 ft 468 kts 307°
2026-04-26 05:54 35.30553 -120.82223 31879 ft 467 kts 307°
2026-04-26 05:54 35.32529 -120.85124 32058 ft 467 kts 307°
2026-04-26 05:54 35.34610 -120.88185 32240 ft 467 kts 307°
2026-04-26 05:54 35.36690 -120.91244 32455 ft 467 kts 307°
2026-04-26 05:55 35.38764 -120.94300 32657 ft 467 kts 307°
2026-04-26 05:55 35.40837 -120.97356 32882 ft 467 kts 307°
2026-04-26 05:55 35.42920 -121.00432 32918 ft 470 kts 307°
2026-04-26 05:55 35.45007 -121.03514 33067 ft 470 kts 307°
2026-04-26 05:56 35.47096 -121.06600 33280 ft 469 kts 307°
2026-04-26 05:56 35.49176 -121.09676 33490 ft 468 kts 307°
2026-04-26 05:56 35.51268 -121.12737 33677 ft 468 kts 307°
2026-04-26 05:56 35.53371 -121.15778 33862 ft 467 kts 308°
2026-04-26 05:57 35.55485 -121.18819 33950 ft 469 kts 308°
2026-04-26 05:57 35.59755 -121.24957 33957 ft 475 kts 308°
2026-04-26 05:58 35.64033 -121.31119 33959 ft 473 kts 308°
2026-04-26 05:58 35.68297 -121.37280 33957 ft 473 kts 308°
2026-04-26 05:59 35.72554 -121.43449 33959 ft 473 kts 308°
2026-04-26 05:59 35.76775 -121.49577 33959 ft 472 kts 308°
2026-04-26 06:00 35.81016 -121.55744 33957 ft 472 kts 308°
2026-04-26 06:00 35.85248 -121.61909 33962 ft 471 kts 308°
2026-04-26 06:01 35.89478 -121.68084 33959 ft 471 kts 308°
2026-04-26 06:01 35.93703 -121.74261 33957 ft 471 kts 308°
2026-04-26 06:02 35.97986 -121.80379 33957 ft 472 kts 313°
2026-04-26 06:02 36.03196 -121.85330 33963 ft 476 kts 327°
2026-04-26 06:03 36.09043 -121.89203 33965 ft 477 kts 330°
2026-04-26 06:03 36.14981 -121.92873 33964 ft 477 kts 331°
2026-04-26 06:04 36.20922 -121.96537 33968 ft 477 kts 331°
2026-04-26 06:04 36.26849 -122.00234 33973 ft 477 kts 330°
2026-04-26 06:05 36.32768 -122.03951 33973 ft 477 kts 330°
2026-04-26 06:05 36.38680 -122.07674 33973 ft 476 kts 330°
2026-04-26 06:06 36.44586 -122.11399 33973 ft 476 kts 330°
2026-04-26 06:06 36.50495 -122.15132 33971 ft 476 kts 330°
2026-04-26 06:07 36.56392 -122.18861 33973 ft 475 kts 331°
2026-04-26 06:07 36.62283 -122.22594 33969 ft 475 kts 331°
2026-04-26 06:08 36.68173 -122.26333 33970 ft 475 kts 331°
2026-04-26 06:08 36.74069 -122.30082 33966 ft 475 kts 331°
2026-04-26 06:09 36.79963 -122.33836 33963 ft 476 kts 331°
2026-04-26 06:09 36.85862 -122.37600 33954 ft 476 kts 331°
2026-04-26 06:10 36.91762 -122.41372 33950 ft 477 kts 331°
2026-04-26 06:10 36.97667 -122.45153 33943 ft 477 kts 331°
2026-04-26 06:11 37.03572 -122.48940 33937 ft 477 kts 331°
2026-04-26 06:11 37.09441 -122.52711 33929 ft 477 kts 331°
2026-04-26 06:12 37.15347 -122.56514 33930 ft 478 kts 331°
2026-04-26 06:12 37.21269 -122.60332 33930 ft 479 kts 331°
2026-04-26 06:13 37.27191 -122.64158 33934 ft 479 kts 331°
2026-04-26 06:13 37.33254 -122.67638 33936 ft 480 kts 336°
2026-04-26 06:14 37.39447 -122.70783 33936 ft 480 kts 336°
2026-04-26 06:14 37.45656 -122.73872 33936 ft 480 kts 337°
2026-04-26 06:15 37.51858 -122.76961 33933 ft 479 kts 337°
2026-04-26 06:15 37.58048 -122.80059 33928 ft 478 kts 336°
2026-04-26 06:16 37.64230 -122.83164 33926 ft 478 kts 336°
2026-04-26 06:16 37.70398 -122.86268 33919 ft 477 kts 336°
2026-04-26 06:17 37.76563 -122.89376 33909 ft 477 kts 336°
2026-04-26 06:17 37.82727 -122.92489 33905 ft 477 kts 336°
2026-04-26 06:18 37.88884 -122.95604 33908 ft 476 kts 336°
2026-04-26 06:18 37.95041 -122.98724 33910 ft 477 kts 336°
2026-04-26 06:19 38.01199 -123.01851 33903 ft 477 kts 336°
2026-04-26 06:19 38.07361 -123.04985 33896 ft 477 kts 336°
2026-04-26 06:20 38.13523 -123.08125 33895 ft 477 kts 336°
2026-04-26 06:20 38.19680 -123.11269 33893 ft 477 kts 336°
2026-04-26 06:21 38.25556 -123.15120 33892 ft 475 kts 328°
2026-04-26 06:21 38.31196 -123.19521 33892 ft 475 kts 326°
2026-04-26 06:22 38.36787 -123.24014 33889 ft 475 kts 326°
2026-04-26 06:22 38.42371 -123.28511 33893 ft 474 kts 326°
2026-04-26 06:23 38.47918 -123.32968 33888 ft 474 kts 326°
2026-04-26 06:23 38.53497 -123.37450 33887 ft 474 kts 326°
2026-04-26 06:24 38.59073 -123.41934 33890 ft 473 kts 326°
2026-04-26 06:24 38.64645 -123.46425 33895 ft 473 kts 326°
2026-04-26 06:25 38.70210 -123.50920 33902 ft 473 kts 326°
2026-04-26 06:25 38.75767 -123.55416 33895 ft 472 kts 326°
2026-04-26 06:26 38.81318 -123.59916 33896 ft 472 kts 326°
2026-04-26 06:26 38.86864 -123.64420 33905 ft 471 kts 325°
2026-04-26 06:27 38.91463 -123.68161 33895 ft 471 kts 325°
2026-04-26 06:27 38.96987 -123.72663 33899 ft 470 kts 325°
2026-04-26 06:28 39.02704 -123.76751 33913 ft 471 kts 331°
2026-04-26 06:28 39.08591 -123.80444 33907 ft 471 kts 332°
2026-04-26 06:29 39.14500 -123.84072 33914 ft 470 kts 332°
2026-04-26 06:29 39.20404 -123.87701 33907 ft 470 kts 332°
2026-04-26 06:30 39.26299 -123.91344 33908 ft 470 kts 332°
2026-04-26 06:30 39.32190 -123.94997 33923 ft 469 kts 332°
2026-04-26 06:31 39.38074 -123.98653 33904 ft 469 kts 332°
2026-04-26 06:31 39.43952 -124.02313 33910 ft 469 kts 332°
2026-04-26 06:32 39.49828 -124.05977 33908 ft 468 kts 332°
2026-04-26 06:32 39.55695 -124.09643 33907 ft 468 kts 332°
2026-04-26 06:33 39.61561 -124.13315 33915 ft 468 kts 331°
2026-04-26 06:33 39.67420 -124.16990 33912 ft 468 kts 331°
2026-04-26 06:34 39.73279 -124.20672 33912 ft 468 kts 331°
2026-04-26 06:34 39.79132 -124.24356 33913 ft 467 kts 331°
2026-04-26 06:35 39.84982 -124.28047 33912 ft 467 kts 331°
2026-04-26 06:35 39.90824 -124.31740 33914 ft 466 kts 331°
2026-04-26 06:36 39.96652 -124.35430 33918 ft 465 kts 331°
2026-04-26 06:36 40.02473 -124.39122 33914 ft 465 kts 331°
2026-04-26 06:37 40.08286 -124.42817 33917 ft 465 kts 331°
2026-04-26 06:37 40.14092 -124.46515 33918 ft 464 kts 331°
2026-04-26 06:38 40.19891 -124.50215 33922 ft 463 kts 332°
2026-04-26 06:38 40.25674 -124.53912 33921 ft 462 kts 332°
2026-04-26 06:39 40.31445 -124.57608 33920 ft 461 kts 332°
2026-04-26 06:39 40.37200 -124.61301 33924 ft 460 kts 332°
2026-04-26 06:40 40.42941 -124.64991 33928 ft 459 kts 332°
2026-04-26 06:40 40.48680 -124.68689 33921 ft 459 kts 332°
2026-04-26 06:41 40.54402 -124.72381 33925 ft 458 kts 332°
2026-04-26 06:41 40.60119 -124.76079 33924 ft 458 kts 332°
2026-04-26 06:42 40.65792 -124.79754 33924 ft 457 kts 332°
2026-04-26 06:42 40.71497 -124.83458 33924 ft 457 kts 332°
2026-04-26 06:43 40.77194 -124.87163 33918 ft 456 kts 332°
2026-04-26 06:43 40.82888 -124.90873 33921 ft 456 kts 332°
2026-04-26 06:44 40.88573 -124.94585 33918 ft 456 kts 332°
2026-04-26 06:44 40.94253 -124.98301 33918 ft 456 kts 332°
2026-04-26 06:45 40.99933 -125.02023 33920 ft 455 kts 332°
2026-04-26 06:45 41.05607 -125.05749 33920 ft 455 kts 332°
2026-04-26 06:46 41.11273 -125.09477 33918 ft 455 kts 332°
2026-04-26 06:46 41.16931 -125.13208 33921 ft 454 kts 332°
2026-04-26 06:47 41.22592 -125.16947 33921 ft 454 kts 332°
2026-04-26 06:47 41.28244 -125.20687 33919 ft 454 kts 332°
2026-04-26 06:48 41.33892 -125.24433 33918 ft 454 kts 332°
2026-04-26 06:48 41.39540 -125.28185 33921 ft 454 kts 332°
2026-04-26 06:49 41.45184 -125.31942 33924 ft 453 kts 332°
2026-04-26 06:49 41.50820 -125.35701 33921 ft 453 kts 332°
2026-04-26 06:50 41.56458 -125.39469 33916 ft 453 kts 333°
2026-04-26 06:50 41.62091 -125.43241 33914 ft 453 kts 333°
2026-04-26 06:51 41.67715 -125.47014 33921 ft 452 kts 333°
2026-04-26 06:51 41.76140 -125.52680 33921 ft 451 kts 333°
2026-04-26 06:52 41.81746 -125.56459 33924 ft 451 kts 333°
2026-04-26 06:52 41.87348 -125.60244 33926 ft 451 kts 333°
2026-04-26 06:53 41.92945 -125.64033 33924 ft 450 kts 333°
2026-04-26 06:53 41.98539 -125.67827 33930 ft 450 kts 333°
2026-04-26 06:54 42.04126 -125.71624 33924 ft 450 kts 333°
2026-04-26 06:54 42.09672 -125.75400 33921 ft 450 kts 333°
2026-04-26 06:55 42.15253 -125.79207 33928 ft 449 kts 333°
2026-04-26 06:55 42.20824 -125.83015 33933 ft 449 kts 333°
2026-04-26 06:56 42.26393 -125.86830 33931 ft 449 kts 333°
2026-04-26 06:56 42.31956 -125.90649 33932 ft 448 kts 333°
2026-04-26 06:57 42.37516 -125.94472 33931 ft 448 kts 333°
2026-04-26 06:57 42.43072 -125.98301 33934 ft 448 kts 333°
2026-04-26 06:58 42.48629 -126.02138 33935 ft 448 kts 333°
2026-04-26 06:58 42.54181 -126.05979 33930 ft 448 kts 333°
2026-04-26 06:59 42.59732 -126.09828 33935 ft 448 kts 333°
2026-04-26 06:59 42.65281 -126.13682 33936 ft 448 kts 333°
2026-04-26 07:00 42.70758 -126.17725 33940 ft 448 kts 327°
2026-04-26 07:00 42.75624 -126.23053 33938 ft 450 kts 320°
2026-04-26 07:01 42.80264 -126.28795 33933 ft 451 kts 319°
2026-04-26 07:01 42.84864 -126.34619 33937 ft 451 kts 319°
2026-04-26 07:02 42.89466 -126.40438 33941 ft 451 kts 319°
2026-04-26 07:02 42.94076 -126.46250 33944 ft 451 kts 319°
2026-04-26 07:03 42.98686 -126.52066 33945 ft 451 kts 319°
2026-04-26 07:03 43.03296 -126.57891 33942 ft 451 kts 319°
2026-04-26 07:04 43.07897 -126.63721 33946 ft 451 kts 319°
2026-04-26 07:04 43.12494 -126.69558 33950 ft 451 kts 319°
2026-04-26 07:05 43.17092 -126.75410 33948 ft 451 kts 319°
2026-04-26 07:05 43.21685 -126.81266 33943 ft 451 kts 319°
2026-04-26 07:06 43.26243 -126.87090 33947 ft 451 kts 319°
2026-04-26 07:06 43.30830 -126.92965 33951 ft 451 kts 319°
2026-04-26 07:07 43.35415 -126.98848 33951 ft 451 kts 319°
2026-04-26 07:07 43.39991 -127.04735 33950 ft 451 kts 319°
2026-04-26 07:08 43.44565 -127.10633 33956 ft 450 kts 319°
2026-04-26 07:08 43.49136 -127.16538 33958 ft 451 kts 319°
2026-04-26 07:09 43.53703 -127.22451 33957 ft 451 kts 319°
2026-04-26 07:09 43.58267 -127.28374 33962 ft 451 kts 319°
2026-04-26 07:11 43.69667 -127.43224 33965 ft 451 kts 319°
2026-04-26 07:11 43.74222 -127.49180 33966 ft 451 kts 319°
2026-04-26 07:12 43.78774 -127.55146 33965 ft 451 kts 319°
2026-04-26 07:12 43.82553 -127.60109 33966 ft 451 kts 320°
2026-04-26 07:13 43.87096 -127.66087 33966 ft 451 kts 319°
2026-04-26 07:13 43.91641 -127.72081 33967 ft 450 kts 319°
2026-04-26 07:14 43.96176 -127.78073 33973 ft 450 kts 319°
2026-04-26 07:14 44.00711 -127.84082 33973 ft 451 kts 320°
2026-04-26 07:15 44.05248 -127.90104 33972 ft 451 kts 320°
2026-04-26 07:15 44.09780 -127.96134 33973 ft 451 kts 320°
2026-04-26 07:16 44.14309 -128.02173 33977 ft 451 kts 320°
2026-04-26 07:16 44.18836 -128.08223 33974 ft 451 kts 320°
2026-04-26 07:17 44.23361 -128.14285 33988 ft 451 kts 320°
2026-04-26 07:17 44.27889 -128.20364 33980 ft 452 kts 320°
2026-04-26 07:18 44.32383 -128.26410 33991 ft 452 kts 320°
2026-04-26 07:18 44.36910 -128.32514 33987 ft 452 kts 320°
2026-04-26 07:19 44.41433 -128.38628 33980 ft 453 kts 320°
2026-04-26 07:19 44.45963 -128.44765 33985 ft 453 kts 320°
2026-04-26 07:20 44.50491 -128.50912 33988 ft 454 kts 320°
2026-04-26 07:20 44.55024 -128.57082 33992 ft 454 kts 320°
2026-04-26 07:21 44.59557 -128.63264 33990 ft 455 kts 320°
2026-04-26 07:21 44.64091 -128.69464 33997 ft 455 kts 320°
2026-04-26 07:22 44.68628 -128.75681 33998 ft 456 kts 320°
2026-04-26 07:22 44.73170 -128.81920 33995 ft 457 kts 320°
2026-04-26 07:23 44.77714 -128.88174 34004 ft 457 kts 320°
2026-04-26 07:23 44.82262 -128.94449 34006 ft 458 kts 320°
2026-04-26 07:24 44.86810 -129.00740 34008 ft 459 kts 320°
2026-04-26 07:24 44.91366 -129.07056 34005 ft 459 kts 320°
2026-04-26 07:25 44.95921 -129.13386 34008 ft 460 kts 320°
2026-04-26 07:25 45.00482 -129.19738 34010 ft 461 kts 320°
2026-04-26 07:26 45.05049 -129.26114 34019 ft 462 kts 320°
2026-04-26 07:26 45.09623 -129.32513 34015 ft 463 kts 320°
2026-04-26 07:27 45.14201 -129.38935 34018 ft 464 kts 320°
2026-04-26 07:27 45.18783 -129.45379 34019 ft 465 kts 320°
2026-04-26 07:28 45.23371 -129.51845 34024 ft 465 kts 320°
2026-04-26 07:28 45.27963 -129.58334 34028 ft 466 kts 320°
2026-04-26 07:29 45.32557 -129.64840 34029 ft 467 kts 320°
2026-04-26 07:29 45.37160 -129.71376 34032 ft 468 kts 320°
2026-04-26 07:30 45.41765 -129.77931 34031 ft 469 kts 319°
2026-04-26 07:30 45.46374 -129.84506 34036 ft 469 kts 319°
2026-04-26 07:31 45.50987 -129.91104 34038 ft 470 kts 319°
2026-04-26 07:31 45.55605 -129.97724 34045 ft 471 kts 319°
2026-04-26 07:32 45.60222 -130.04361 34045 ft 471 kts 319°
2026-04-26 07:32 45.64810 -130.10973 34046 ft 472 kts 319°
2026-04-26 07:33 45.69433 -130.17651 34054 ft 473 kts 318°
2026-04-26 07:33 45.74061 -130.24353 34055 ft 473 kts 318°
2026-04-26 07:34 45.78690 -130.31072 34056 ft 474 kts 318°
2026-04-26 07:34 45.83320 -130.37811 34061 ft 475 kts 318°
2026-04-26 07:35 45.87953 -130.44571 34060 ft 475 kts 317°
2026-04-26 07:35 45.92591 -130.51355 34065 ft 476 kts 317°
2026-04-26 07:36 45.97230 -130.58158 34069 ft 477 kts 317°
2026-04-26 07:36 46.01869 -130.64980 34076 ft 477 kts 317°
2026-04-26 07:37 46.06477 -130.71773 34073 ft 478 kts 317°
2026-04-26 07:37 46.11116 -130.78628 34077 ft 478 kts 317°
2026-04-26 07:38 46.15757 -130.85503 34078 ft 479 kts 317°
2026-04-26 07:38 46.20396 -130.92396 34084 ft 479 kts 317°
2026-04-26 07:39 46.25039 -130.99308 34085 ft 480 kts 317°
2026-04-26 07:39 46.29685 -131.06243 34088 ft 480 kts 317°
2026-04-26 07:40 46.34326 -131.13191 34089 ft 481 kts 317°
2026-04-26 07:40 46.38968 -131.20158 34094 ft 481 kts 317°
2026-04-26 07:41 46.43613 -131.27148 34099 ft 482 kts 317°
2026-04-26 07:41 46.48260 -131.34159 34105 ft 482 kts 316°
2026-04-26 07:42 46.52909 -131.41197 34105 ft 483 kts 317°
2026-04-26 07:42 46.57560 -131.48249 34107 ft 484 kts 316°
2026-04-26 07:43 46.62215 -131.55330 34108 ft 485 kts 316°
2026-04-26 07:43 46.66871 -131.62429 34111 ft 485 kts 316°
2026-04-26 07:44 46.71534 -131.69550 34116 ft 486 kts 316°
2026-04-26 07:44 46.76199 -131.76699 34115 ft 487 kts 316°
2026-04-26 07:45 46.80866 -131.83872 34122 ft 488 kts 316°
2026-04-26 07:45 46.85537 -131.91079 34130 ft 489 kts 316°
2026-04-26 07:46 46.90211 -131.98306 34124 ft 490 kts 315°
2026-04-26 07:46 46.94890 -132.05563 34139 ft 491 kts 316°
2026-04-26 07:47 46.99578 -132.12847 34136 ft 492 kts 315°
2026-04-26 07:47 47.04436 -132.19899 34138 ft 491 kts 320°
2026-04-26 07:48 47.09519 -132.26602 34144 ft 492 kts 320°
2026-04-26 07:48 47.14600 -132.33343 34146 ft 493 kts 319°
2026-04-26 07:49 47.19654 -132.40175 34146 ft 494 kts 319°
2026-04-26 07:49 47.24697 -132.47074 34153 ft 496 kts 319°
2026-04-26 07:50 47.32269 -132.57492 34154 ft 497 kts 318°
2026-04-26 07:50 47.37322 -132.64462 34159 ft 498 kts 318°
2026-04-26 07:51 47.42383 -132.71449 34163 ft 499 kts 318°
2026-04-26 07:51 47.47449 -132.78463 34165 ft 499 kts 318°
2026-04-26 07:52 47.52482 -132.85451 34172 ft 500 kts 317°
2026-04-26 07:52 47.57544 -132.92506 34172 ft 500 kts 317°
2026-04-26 07:53 47.62609 -132.99581 34173 ft 501 kts 317°
2026-04-26 07:53 47.67678 -133.06680 34177 ft 501 kts 317°
2026-04-26 07:54 47.72744 -133.13791 34181 ft 501 kts 317°
2026-04-26 07:54 47.77806 -133.20923 34184 ft 502 kts 317°
2026-04-26 07:55 47.82873 -133.28081 34187 ft 503 kts 316°
2026-04-26 07:55 47.87945 -133.35268 34190 ft 503 kts 316°
2026-04-26 07:56 47.93022 -133.42482 34191 ft 505 kts 316°
2026-04-26 07:56 47.98101 -133.49718 34189 ft 505 kts 316°
2026-04-26 07:57 48.03186 -133.56981 34194 ft 506 kts 316°
2026-04-26 07:57 48.08242 -133.64225 34202 ft 507 kts 316°
2026-04-26 07:58 48.13370 -133.71593 34200 ft 508 kts 315°
2026-04-26 07:58 48.18464 -133.78935 34205 ft 508 kts 315°
2026-04-26 07:59 48.22700 -133.85058 34210 ft 509 kts 315°
2026-04-26 07:59 48.27803 -133.92451 34210 ft 510 kts 315°
2026-04-26 08:00 48.32907 -133.99867 34210 ft 510 kts 315°
2026-04-26 08:00 48.38005 -134.07299 34213 ft 510 kts 314°
2026-04-26 08:01 48.43094 -134.14738 34217 ft 510 kts 314°
2026-04-26 08:01 48.48177 -134.22188 34218 ft 509 kts 314°
2026-04-26 08:02 48.53250 -134.29648 34223 ft 509 kts 314°
2026-04-26 08:02 48.58318 -134.37121 34224 ft 509 kts 314°
2026-04-26 08:03 48.63382 -134.44610 34230 ft 509 kts 314°
2026-04-26 08:03 48.68438 -134.52112 34230 ft 509 kts 314°
2026-04-26 08:04 48.73486 -134.59622 34236 ft 509 kts 313°
2026-04-26 08:04 48.78529 -134.67147 34229 ft 509 kts 313°
2026-04-26 08:05 48.83564 -134.74683 34235 ft 509 kts 313°
2026-04-26 08:05 48.88561 -134.82186 34241 ft 508 kts 313°
2026-04-26 08:06 48.93585 -134.89750 34245 ft 508 kts 313°
2026-04-26 08:06 48.98603 -134.97329 34245 ft 508 kts 313°
2026-04-26 08:07 49.03612 -135.04917 34244 ft 508 kts 313°
2026-04-26 08:07 49.08616 -135.12520 34254 ft 507 kts 313°
2026-04-26 08:08 49.13610 -135.20130 34258 ft 507 kts 313°
2026-04-26 08:08 49.18598 -135.27754 34253 ft 507 kts 313°
2026-04-26 08:09 49.23579 -135.35391 34254 ft 507 kts 313°
2026-04-26 08:09 49.28555 -135.43043 34256 ft 507 kts 312°
2026-04-26 08:10 49.33526 -135.50709 34259 ft 507 kts 312°
2026-04-26 08:10 49.38487 -135.58385 34261 ft 506 kts 312°
2026-04-26 08:11 49.43440 -135.66073 34262 ft 507 kts 312°
2026-04-26 08:11 49.48389 -135.73777 34266 ft 506 kts 312°
2026-04-26 08:12 49.53334 -135.81498 34271 ft 506 kts 311°
2026-04-26 08:12 49.58271 -135.89231 34266 ft 506 kts 311°
2026-04-26 08:13 49.63171 -135.96929 34270 ft 506 kts 311°
2026-04-26 08:13 49.68103 -136.04700 34271 ft 507 kts 311°
2026-04-26 08:14 49.73030 -136.12488 34272 ft 507 kts 311°
2026-04-26 08:14 49.77950 -136.20287 34273 ft 507 kts 311°
2026-04-26 08:15 49.82864 -136.28105 34275 ft 507 kts 311°
2026-04-26 08:15 49.87779 -136.35946 34276 ft 507 kts 311°
2026-04-26 08:16 49.92688 -136.43803 34276 ft 507 kts 310°
2026-04-26 08:16 49.97593 -136.51678 34282 ft 507 kts 310°
2026-04-26 08:17 50.02491 -136.59564 34278 ft 507 kts 310°
2026-04-26 08:17 50.07385 -136.67470 34283 ft 507 kts 310°
2026-04-26 08:18 50.12273 -136.75392 34282 ft 507 kts 310°
2026-04-26 08:18 50.17155 -136.83328 34284 ft 507 kts 310°
2026-04-26 08:19 50.22026 -136.91273 34285 ft 506 kts 310°
2026-04-26 08:19 50.26885 -136.99224 34286 ft 506 kts 310°
2026-04-26 08:20 50.31735 -137.07183 34288 ft 505 kts 310°
2026-04-26 08:20 50.36571 -137.15144 34287 ft 504 kts 310°
2026-04-26 08:21 50.41389 -137.23103 34287 ft 503 kts 310°
2026-04-26 08:21 50.46196 -137.31068 34288 ft 502 kts 310°
2026-04-26 08:22 50.50994 -137.39041 34292 ft 501 kts 310°
2026-04-26 08:22 50.55770 -137.47005 34292 ft 500 kts 310°
2026-04-26 08:23 50.60532 -137.54971 34287 ft 499 kts 310°
2026-04-26 08:23 50.65281 -137.62940 34289 ft 499 kts 310°
2026-04-26 08:24 50.70026 -137.70925 34289 ft 499 kts 309°
2026-04-26 08:24 50.74761 -137.78922 34292 ft 498 kts 309°
2026-04-26 08:25 50.79488 -137.86928 34294 ft 498 kts 309°
2026-04-26 08:25 50.84206 -137.94945 34291 ft 498 kts 309°
2026-04-26 08:26 50.88922 -138.02985 34293 ft 498 kts 309°
2026-04-26 08:26 50.93635 -138.11045 34293 ft 498 kts 309°
2026-04-26 08:27 50.98308 -138.19064 34294 ft 498 kts 309°
2026-04-26 08:27 51.03010 -138.27157 34295 ft 499 kts 309°
2026-04-26 08:28 51.07707 -138.35267 34290 ft 498 kts 309°
2026-04-26 08:28 51.12397 -138.43392 34290 ft 498 kts 308°
2026-04-26 08:29 51.17081 -138.51531 34289 ft 498 kts 308°
2026-04-26 08:29 51.21759 -138.59689 34295 ft 498 kts 308°
2026-04-26 08:30 51.26428 -138.67856 34292 ft 498 kts 308°
2026-04-26 08:30 51.31083 -138.76025 34290 ft 497 kts 308°
2026-04-26 08:31 51.35727 -138.84202 34294 ft 496 kts 308°
2026-04-26 08:31 51.40362 -138.92389 34295 ft 496 kts 308°
2026-04-26 08:32 51.44984 -139.00581 34293 ft 494 kts 309°
2026-04-26 08:32 51.49583 -139.08759 34292 ft 493 kts 309°
2026-04-26 08:33 51.54164 -139.16931 34287 ft 492 kts 309°
2026-04-26 08:33 51.58726 -139.25095 34291 ft 490 kts 309°
2026-04-26 08:34 51.63269 -139.33253 34289 ft 489 kts 309°
2026-04-26 08:34 51.67797 -139.41409 34288 ft 488 kts 309°
2026-04-26 08:35 51.72306 -139.49558 34286 ft 486 kts 309°
2026-04-26 08:35 51.76798 -139.57702 34287 ft 485 kts 309°
2026-04-26 08:36 51.81269 -139.65834 34289 ft 483 kts 309°
2026-04-26 08:36 51.85720 -139.73957 34288 ft 482 kts 309°
2026-04-26 08:37 51.90153 -139.82072 34291 ft 480 kts 310°
2026-04-26 08:37 51.94560 -139.90167 34293 ft 478 kts 310°
2026-04-26 08:38 51.98950 -139.98254 34288 ft 477 kts 310°
2026-04-26 08:38 52.03218 -140.06460 34289 ft 475 kts 307°
2026-04-26 08:39 52.07243 -140.14949 34287 ft 473 kts 306°
2026-04-26 08:39 52.11209 -140.23381 34285 ft 472 kts 307°
2026-04-26 08:40 52.15221 -140.31816 34292 ft 470 kts 307°
2026-04-26 08:40 52.19233 -140.40214 34290 ft 469 kts 307°
2026-04-26 08:41 52.23233 -140.48603 34290 ft 468 kts 307°
2026-04-26 08:41 52.27214 -140.56981 34288 ft 466 kts 308°
2026-04-26 08:42 52.31202 -140.65409 34288 ft 465 kts 308°
2026-04-26 08:42 52.35120 -140.73716 34289 ft 464 kts 308°
2026-04-26 08:43 52.39046 -140.82065 34288 ft 462 kts 308°
2026-04-26 08:43 52.42953 -140.90404 34287 ft 461 kts 308°
2026-04-26 08:44 52.46845 -140.98736 34295 ft 459 kts 308°
2026-04-26 08:44 52.50717 -141.07053 34294 ft 458 kts 308°
2026-04-26 08:45 52.54572 -141.15361 34290 ft 457 kts 308°
2026-04-26 08:45 52.58413 -141.23665 34294 ft 455 kts 308°
2026-04-26 08:46 52.61614 -141.30607 34292 ft 454 kts 308°
2026-04-26 08:46 52.65395 -141.38830 34293 ft 453 kts 308°
2026-04-26 08:47 52.69183 -141.47095 34295 ft 451 kts 308°
2026-04-26 08:47 52.72953 -141.55351 34297 ft 450 kts 308°
2026-04-26 08:48 52.76706 -141.63592 34303 ft 448 kts 308°
2026-04-26 08:48 52.80441 -141.71821 34302 ft 447 kts 308°
2026-04-26 08:49 52.84157 -141.80036 34297 ft 445 kts 308°
2026-04-26 08:49 52.87856 -141.88239 34295 ft 444 kts 308°
2026-04-26 08:50 52.91537 -141.96429 34300 ft 442 kts 308°
2026-04-26 08:50 52.95198 -142.04600 34302 ft 441 kts 308°
2026-04-26 08:51 53.00661 -142.16843 34299 ft 439 kts 308°
2026-04-26 08:52 53.04277 -142.24980 34302 ft 437 kts 308°
2026-04-26 08:52 53.07878 -142.33109 34304 ft 436 kts 308°
2026-04-26 08:53 53.11458 -142.41216 34308 ft 434 kts 308°
2026-04-26 08:53 53.15021 -142.49310 34306 ft 433 kts 308°
2026-04-26 08:54 53.18568 -142.57394 34303 ft 431 kts 308°
2026-04-26 08:54 53.22099 -142.65466 34311 ft 430 kts 308°
2026-04-26 08:55 53.25613 -142.73528 34302 ft 429 kts 308°
2026-04-26 08:55 53.29109 -142.81572 34298 ft 427 kts 308°
2026-04-26 08:56 53.32591 -142.89608 34311 ft 426 kts 308°
2026-04-26 08:56 53.36056 -142.97631 34302 ft 425 kts 308°
2026-04-26 08:57 53.39506 -143.05647 34300 ft 424 kts 308°
2026-04-26 08:57 53.42942 -143.13654 34306 ft 422 kts 308°
2026-04-26 08:58 53.46361 -143.21648 34302 ft 421 kts 307°
2026-04-26 08:58 53.49765 -143.29632 34302 ft 420 kts 307°
2026-04-26 08:59 53.53133 -143.37556 34301 ft 419 kts 307°
2026-04-26 08:59 53.56530 -143.45572 34302 ft 417 kts 307°
2026-04-26 09:00 53.59886 -143.53522 34298 ft 416 kts 307°
2026-04-26 09:00 53.63228 -143.61460 34310 ft 415 kts 307°
2026-04-26 09:01 53.66553 -143.69381 34306 ft 414 kts 307°
2026-04-26 09:01 53.69846 -143.77248 34300 ft 413 kts 307°
2026-04-26 09:02 53.73148 -143.85166 34307 ft 412 kts 307°
2026-04-26 09:02 53.76437 -143.93078 34307 ft 411 kts 307°
2026-04-26 09:03 53.79718 -144.00994 34304 ft 410 kts 307°
2026-04-26 09:03 53.82985 -144.08902 34306 ft 410 kts 307°
2026-04-26 09:04 53.86241 -144.16807 34300 ft 409 kts 307°
2026-04-26 09:04 53.89486 -144.24711 34303 ft 408 kts 307°
2026-04-26 09:05 53.92719 -144.32612 34302 ft 407 kts 307°
2026-04-26 09:05 53.95942 -144.40512 34301 ft 407 kts 307°
2026-04-26 09:06 53.99156 -144.48415 34302 ft 406 kts 307°
2026-04-26 09:06 54.02334 -144.56253 34303 ft 405 kts 307°
2026-04-26 09:07 54.05545 -144.64200 34296 ft 404 kts 307°
2026-04-26 09:07 54.08702 -144.72036 34299 ft 404 kts 307°
2026-04-26 09:08 54.11870 -144.79924 34297 ft 403 kts 307°
2026-04-26 09:08 54.15026 -144.87806 34297 ft 402 kts 306°
2026-04-26 09:09 54.18172 -144.95690 34294 ft 401 kts 306°
2026-04-26 09:09 54.21307 -145.03571 34292 ft 401 kts 306°
2026-04-26 09:10 54.24434 -145.11457 34291 ft 400 kts 306°
2026-04-26 09:10 54.27551 -145.19342 34293 ft 400 kts 306°
2026-04-26 09:11 54.30661 -145.27235 34294 ft 399 kts 306°
2026-04-26 09:11 54.33760 -145.35123 34297 ft 399 kts 306°
2026-04-26 09:12 54.36849 -145.43012 34294 ft 398 kts 306°
2026-04-26 09:12 54.39912 -145.50858 34286 ft 398 kts 306°
2026-04-26 09:13 54.42984 -145.58753 34290 ft 398 kts 306°
2026-04-26 09:13 54.46050 -145.66659 34292 ft 397 kts 306°
2026-04-26 09:14 54.49107 -145.74565 34288 ft 397 kts 306°
2026-04-26 09:14 54.52155 -145.82475 34284 ft 396 kts 306°
2026-04-26 09:15 54.55197 -145.90390 34289 ft 396 kts 305°
2026-04-26 09:15 54.58228 -145.98306 34286 ft 396 kts 305°
2026-04-26 09:16 54.61254 -146.06232 34282 ft 395 kts 305°
2026-04-26 09:16 54.64273 -146.14166 34279 ft 395 kts 305°
2026-04-26 09:17 54.67284 -146.22105 34279 ft 395 kts 305°
2026-04-26 09:17 54.70287 -146.30049 34275 ft 395 kts 304°
2026-04-26 09:18 54.73283 -146.37997 34279 ft 394 kts 304°
2026-04-26 09:18 54.76274 -146.45958 34275 ft 394 kts 304°
2026-04-26 09:19 54.79259 -146.53930 34276 ft 394 kts 304°
2026-04-26 09:19 54.82235 -146.61904 34275 ft 394 kts 304°
2026-04-26 09:20 54.85206 -146.69890 34273 ft 394 kts 304°
2026-04-26 09:20 54.88171 -146.77883 34274 ft 394 kts 304°
2026-04-26 09:21 54.91129 -146.85887 34270 ft 393 kts 303°
2026-04-26 09:21 54.94081 -146.93897 34271 ft 393 kts 303°
2026-04-26 09:22 54.97028 -147.01923 34271 ft 393 kts 303°
2026-04-26 09:22 54.99968 -147.09953 34267 ft 393 kts 303°
2026-04-26 09:23 55.02902 -147.17996 34268 ft 393 kts 303°
2026-04-26 09:23 55.05832 -147.26052 34264 ft 393 kts 303°
2026-04-26 09:24 55.08735 -147.34061 34264 ft 393 kts 303°
2026-04-26 09:24 55.11653 -147.42139 34267 ft 393 kts 302°
2026-04-26 09:25 55.14569 -147.50234 34262 ft 394 kts 302°
2026-04-26 09:25 55.17480 -147.58345 34263 ft 394 kts 302°
2026-04-26 09:26 55.20387 -147.66472 34261 ft 394 kts 302°
2026-04-26 09:26 55.23290 -147.74614 34261 ft 394 kts 302°
2026-04-26 09:27 55.26187 -147.82767 34259 ft 394 kts 302°
2026-04-26 09:27 55.29082 -147.90940 34252 ft 395 kts 301°
2026-04-26 09:28 55.31974 -147.99133 34252 ft 395 kts 301°
2026-04-26 09:28 55.34859 -148.07334 34250 ft 395 kts 301°
2026-04-26 09:29 55.37742 -148.15556 34247 ft 395 kts 301°
2026-04-26 09:29 55.40623 -148.23802 34249 ft 395 kts 301°
2026-04-26 09:30 55.43497 -148.32053 34246 ft 396 kts 301°
2026-04-26 09:30 55.46367 -148.40322 34244 ft 396 kts 300°
2026-04-26 09:31 55.49234 -148.48612 34236 ft 396 kts 300°
2026-04-26 09:31 55.52077 -148.56857 34239 ft 396 kts 300°
2026-04-26 09:32 55.54932 -148.65169 34238 ft 396 kts 300°
2026-04-26 09:32 55.57784 -148.73496 34236 ft 396 kts 300°
2026-04-26 09:33 55.60631 -148.81842 34233 ft 396 kts 299°
2026-04-26 09:33 55.63475 -148.90206 34236 ft 396 kts 299°
2026-04-26 09:34 55.66311 -148.98576 34228 ft 397 kts 299°
2026-04-26 09:34 55.69142 -149.06959 34228 ft 397 kts 299°
2026-04-26 09:35 55.71511 -149.13997 34227 ft 397 kts 298°
2026-04-26 09:35 55.74316 -149.22357 34223 ft 397 kts 298°
2026-04-26 09:36 55.77133 -149.30780 34219 ft 397 kts 298°
2026-04-26 09:36 55.79945 -149.39221 34218 ft 397 kts 298°
2026-04-26 09:37 55.82755 -149.47685 34223 ft 398 kts 298°
2026-04-26 09:37 55.85560 -149.56162 34216 ft 398 kts 298°
2026-04-26 09:38 55.88365 -149.64670 34212 ft 398 kts 297°
2026-04-26 09:38 55.91164 -149.73188 34206 ft 398 kts 297°
2026-04-26 09:39 55.93958 -149.81721 34208 ft 399 kts 297°
2026-04-26 09:39 55.96748 -149.90273 34207 ft 399 kts 297°
2026-04-26 09:40 55.99348 -149.98999 34201 ft 397 kts 291°
2026-04-26 09:40 56.00945 -150.08418 34199 ft 397 kts 283°
2026-04-26 09:41 56.02145 -150.18054 34194 ft 398 kts 282°
2026-04-26 09:41 56.03273 -150.27731 34197 ft 398 kts 282°
2026-04-26 09:42 56.04402 -150.37417 34190 ft 398 kts 282°
2026-04-26 09:42 56.05537 -150.47107 34189 ft 398 kts 281°
2026-04-26 09:43 56.06671 -150.56806 34187 ft 398 kts 281°
2026-04-26 09:43 56.07799 -150.66523 34186 ft 399 kts 281°
2026-04-26 09:44 56.08919 -150.76244 34184 ft 399 kts 281°
2026-04-26 09:44 56.10031 -150.85974 34179 ft 399 kts 281°
2026-04-26 09:45 56.11138 -150.95730 34178 ft 399 kts 280°
2026-04-26 09:45 56.12236 -151.05482 34176 ft 400 kts 280°
2026-04-26 09:46 56.13328 -151.15250 34171 ft 400 kts 280°
2026-04-26 09:46 56.14412 -151.25031 34168 ft 400 kts 280°
2026-04-26 09:47 56.15491 -151.34831 34163 ft 401 kts 279°
2026-04-26 09:47 56.16561 -151.44640 34165 ft 401 kts 279°
2026-04-26 09:48 56.17625 -151.54461 34165 ft 401 kts 279°
2026-04-26 09:48 56.18683 -151.64305 34160 ft 402 kts 279°
2026-04-26 09:49 56.19734 -151.74159 34154 ft 402 kts 279°
2026-04-26 09:49 56.20778 -151.84027 34160 ft 402 kts 278°
2026-04-26 09:50 56.21807 -151.93837 34151 ft 403 kts 278°
2026-04-26 09:50 56.22837 -152.03738 34150 ft 403 kts 278°
2026-04-26 09:51 56.23860 -152.13644 34148 ft 403 kts 278°
2026-04-26 09:51 56.24876 -152.23570 34146 ft 404 kts 278°
2026-04-26 09:52 56.25884 -152.33509 34143 ft 404 kts 278°
2026-04-26 09:52 56.27383 -152.48432 34140 ft 404 kts 277°
2026-04-26 09:53 56.28373 -152.58395 34139 ft 405 kts 277°
2026-04-26 09:53 56.29355 -152.68364 34135 ft 405 kts 277°
2026-04-26 09:54 56.30330 -152.78347 34131 ft 405 kts 277°
2026-04-26 09:54 56.31298 -152.88343 34127 ft 405 kts 277°
2026-04-26 09:55 56.32257 -152.98341 34128 ft 405 kts 277°
2026-04-26 09:55 56.33209 -153.08355 34120 ft 406 kts 277°
2026-04-26 09:56 56.34154 -153.18384 34113 ft 406 kts 276°
2026-04-26 09:56 56.35091 -153.28416 34111 ft 406 kts 276°
2026-04-26 09:57 56.36021 -153.38463 34111 ft 406 kts 276°
2026-04-26 09:57 56.36943 -153.48519 34109 ft 406 kts 276°
2026-04-26 09:58 56.37857 -153.58583 34107 ft 407 kts 276°
2026-04-26 09:58 56.38764 -153.68651 34101 ft 407 kts 276°
2026-04-26 09:59 56.39662 -153.78726 34099 ft 406 kts 275°
2026-04-26 09:59 56.40551 -153.88805 34098 ft 407 kts 275°
2026-04-26 10:00 56.41432 -153.98883 34090 ft 406 kts 275°
2026-04-26 10:00 56.42305 -154.08965 34082 ft 406 kts 275°
2026-04-26 10:01 56.43165 -154.18998 34084 ft 407 kts 275°
2026-04-26 10:01 56.44024 -154.29122 34077 ft 408 kts 274°
2026-04-26 10:02 56.44882 -154.39331 34076 ft 409 kts 274°
2026-04-26 10:02 56.45723 -154.49442 34068 ft 410 kts 274°
2026-04-26 10:03 56.46563 -154.59647 34060 ft 411 kts 274°
2026-04-26 10:03 56.47396 -154.69881 34059 ft 412 kts 273°
2026-04-26 10:04 56.48223 -154.80144 34053 ft 413 kts 273°
2026-04-26 10:04 56.49043 -154.90438 34050 ft 414 kts 273°
2026-04-26 10:05 56.49857 -155.00760 34049 ft 415 kts 272°
2026-04-26 10:05 56.50665 -155.11116 34043 ft 416 kts 272°
2026-04-26 10:06 56.51466 -155.21494 34036 ft 417 kts 272°
2026-04-26 10:06 56.52260 -155.31904 34034 ft 417 kts 272°
2026-04-26 10:07 56.53047 -155.42335 34029 ft 419 kts 272°
2026-04-26 10:07 56.53826 -155.52799 34023 ft 419 kts 271°
2026-04-26 10:08 56.54598 -155.63277 34017 ft 420 kts 271°
2026-04-26 10:08 56.55362 -155.73800 34013 ft 421 kts 271°
2026-04-26 10:09 56.56119 -155.84332 34007 ft 422 kts 271°
2026-04-26 10:09 56.56871 -155.94909 33997 ft 423 kts 271°
2026-04-26 10:10 56.57615 -156.05499 33997 ft 424 kts 271°
2026-04-26 10:10 56.58351 -156.16120 33995 ft 425 kts 271°
2026-04-26 10:11 56.59079 -156.26761 33993 ft 426 kts 271°
2026-04-26 10:11 56.59800 -156.37434 33989 ft 426 kts 270°
2026-04-26 10:12 56.60513 -156.48128 33978 ft 427 kts 270°
2026-04-26 10:12 56.61218 -156.58859 33980 ft 428 kts 270°
2026-04-26 10:13 56.61911 -156.69534 33975 ft 429 kts 270°
2026-04-26 10:13 56.62601 -156.80317 33970 ft 430 kts 270°
2026-04-26 10:14 56.63282 -156.91112 33965 ft 431 kts 270°
2026-04-26 10:14 56.63957 -157.01955 33958 ft 432 kts 270°
2026-04-26 10:15 56.64623 -157.12821 33956 ft 433 kts 269°
2026-04-26 10:15 56.65281 -157.23715 33947 ft 434 kts 269°
2026-04-26 10:16 56.65932 -157.34651 33949 ft 436 kts 269°
2026-04-26 10:16 56.66575 -157.45620 33939 ft 437 kts 269°
2026-04-26 10:17 56.67208 -157.56611 33928 ft 438 kts 269°
2026-04-26 10:17 56.67835 -157.67644 33922 ft 439 kts 269°
2026-04-26 10:18 56.68453 -157.78704 33914 ft 440 kts 269°
2026-04-26 10:18 56.69064 -157.89792 33905 ft 441 kts 269°
2026-04-26 10:19 56.69667 -158.00899 33891 ft 442 kts 268°
2026-04-26 10:19 56.70262 -158.12036 33877 ft 442 kts 268°
2026-04-26 10:20 56.70745 -158.21291 33864 ft 443 kts 268°
2026-04-26 10:20 56.71319 -158.32459 33840 ft 444 kts 268°
2026-04-26 10:21 56.71976 -158.45475 33818 ft 445 kts 268°
2026-04-26 10:21 56.72533 -158.56712 33806 ft 446 kts 268°
2026-04-26 10:22 56.72993 -158.66149 33800 ft 447 kts 268°
2026-04-26 10:22 56.73533 -158.77437 33793 ft 448 kts 268°
2026-04-26 10:23 56.74064 -158.88747 33791 ft 449 kts 268°
2026-04-26 10:23 56.74587 -159.00093 33782 ft 450 kts 268°
2026-04-26 10:24 56.75101 -159.11462 33768 ft 451 kts 268°
2026-04-26 10:24 56.75605 -159.22866 33755 ft 452 kts 268°
2026-04-26 10:25 56.76100 -159.34289 33743 ft 453 kts 268°
2026-04-26 10:25 56.76585 -159.45744 33732 ft 454 kts 268°
2026-04-26 10:26 56.77060 -159.57225 33725 ft 455 kts 268°
2026-04-26 10:26 56.77523 -159.68655 33721 ft 456 kts 268°
2026-04-26 10:27 56.77979 -159.80191 33710 ft 457 kts 268°
2026-04-26 10:27 56.78426 -159.91756 33696 ft 457 kts 268°
2026-04-26 10:28 56.78863 -160.03343 33688 ft 459 kts 268°
2026-04-26 10:28 56.79290 -160.14961 33683 ft 459 kts 268°
2026-04-26 10:29 56.79708 -160.26591 33886 ft 458 kts 268°
2026-04-26 10:29 56.79912 -160.32370 34225 ft 455 kts 267°
2026-04-26 10:29 56.80086 -160.38118 34479 ft 453 kts 267°
2026-04-26 10:30 56.80230 -160.43865 34677 ft 453 kts 266°
2026-04-26 10:30 56.80361 -160.49624 34843 ft 454 kts 266°
2026-04-26 10:30 56.80489 -160.55388 35019 ft 455 kts 266°
2026-04-26 10:30 56.80618 -160.61155 35218 ft 455 kts 267°
2026-04-26 10:31 56.80749 -160.66917 35396 ft 455 kts 267°
2026-04-26 10:31 56.80881 -160.72692 35532 ft 456 kts 267°
2026-04-26 10:31 56.81142 -160.84317 35632 ft 462 kts 267°
2026-04-26 10:32 56.81399 -160.96083 35625 ft 464 kts 267°
2026-04-26 10:32 56.81648 -161.07849 35616 ft 464 kts 267°
2026-04-26 10:33 56.81882 -161.19540 35607 ft 465 kts 267°
2026-04-26 10:33 56.82105 -161.31339 35600 ft 465 kts 267°
2026-04-26 10:34 56.82318 -161.43149 35593 ft 466 kts 267°
2026-04-26 10:34 56.82519 -161.54968 35588 ft 466 kts 267°
2026-04-26 10:35 56.82710 -161.66802 35580 ft 467 kts 267°
2026-04-26 10:35 56.82890 -161.78652 35564 ft 467 kts 267°
2026-04-26 10:36 56.83058 -161.90515 35556 ft 468 kts 267°
2026-04-26 10:36 56.83216 -162.02389 35549 ft 468 kts 266°
2026-04-26 10:37 56.83362 -162.14280 35543 ft 468 kts 267°
2026-04-26 10:37 56.83498 -162.26178 35531 ft 469 kts 266°
2026-04-26 10:38 56.83622 -162.38085 35523 ft 469 kts 266°
2026-04-26 10:38 56.83735 -162.50003 35519 ft 469 kts 266°
2026-04-26 10:39 56.83836 -162.61924 35506 ft 470 kts 266°
2026-04-26 10:39 56.83926 -162.73861 35493 ft 470 kts 266°
2026-04-26 10:40 56.84003 -162.85715 35486 ft 470 kts 266°
2026-04-26 10:40 56.84072 -162.97740 35478 ft 470 kts 266°
2026-04-26 10:41 56.84128 -163.09611 35467 ft 471 kts 266°
2026-04-26 10:41 56.84172 -163.21575 35458 ft 471 kts 266°
2026-04-26 10:42 56.84206 -163.33539 35448 ft 471 kts 266°
2026-04-26 10:42 56.84228 -163.45508 35437 ft 471 kts 266°
2026-04-26 10:43 56.84238 -163.57476 35427 ft 471 kts 266°
2026-04-26 10:43 56.84237 -163.69455 35416 ft 472 kts 266°
2026-04-26 10:44 56.84224 -163.81436 35411 ft 472 kts 266°
2026-04-26 10:44 56.84200 -163.93429 35405 ft 472 kts 266°
2026-04-26 10:45 56.84164 -164.05424 35396 ft 472 kts 266°
2026-04-26 10:45 56.84118 -164.17418 35387 ft 472 kts 266°
2026-04-26 10:46 56.84059 -164.29423 35377 ft 472 kts 266°
2026-04-26 10:46 56.83989 -164.41415 35372 ft 473 kts 266°
2026-04-26 10:47 56.83907 -164.53421 35363 ft 473 kts 266°
2026-04-26 10:47 56.83814 -164.65423 35357 ft 473 kts 266°
2026-04-26 10:48 56.83709 -164.77435 35347 ft 473 kts 266°
2026-04-26 10:48 56.83593 -164.89440 35337 ft 473 kts 266°
2026-04-26 10:49 56.83465 -165.01439 35332 ft 473 kts 266°
2026-04-26 10:49 56.83327 -165.13365 35320 ft 473 kts 266°
2026-04-26 10:50 56.83202 -165.23420 35317 ft 473 kts 266°
2026-04-26 10:50 56.83015 -165.37358 35307 ft 472 kts 266°
2026-04-26 10:51 56.82750 -165.55348 35293 ft 472 kts 265°
2026-04-26 10:52 56.82560 -165.67324 35291 ft 472 kts 266°
2026-04-26 10:52 56.82358 -165.79288 35273 ft 471 kts 265°
2026-04-26 10:53 56.82144 -165.91252 35270 ft 471 kts 265°
2026-04-26 10:53 56.81920 -166.03196 35264 ft 471 kts 265°
2026-04-26 10:54 56.81562 -166.21117 35248 ft 471 kts 265°
2026-04-26 10:54 56.81311 -166.32960 35252 ft 470 kts 265°
2026-04-26 10:55 56.81047 -166.44882 35244 ft 470 kts 265°
2026-04-26 10:55 56.80817 -166.54857 35239 ft 470 kts 265°
2026-04-26 10:56 56.80486 -166.68696 35231 ft 469 kts 265°
2026-04-26 10:56 56.80189 -166.80575 35221 ft 469 kts 265°
2026-04-26 10:57 56.79880 -166.92461 35215 ft 468 kts 265°
2026-04-26 10:57 56.79562 -167.04315 35203 ft 468 kts 265°
2026-04-26 10:58 56.79231 -167.16172 35198 ft 467 kts 265°
2026-04-26 10:58 56.78890 -167.28007 35187 ft 467 kts 265°
2026-04-26 10:59 56.78538 -167.39838 35181 ft 467 kts 265°
2026-04-26 10:59 56.78175 -167.51652 35170 ft 466 kts 265°
2026-04-26 11:00 56.77805 -167.63462 35164 ft 466 kts 265°
2026-04-26 11:00 56.77419 -167.75256 35156 ft 466 kts 265°
2026-04-26 11:01 56.77022 -167.87039 35146 ft 466 kts 265°
2026-04-26 11:01 56.76614 -167.98827 35137 ft 466 kts 264°
2026-04-26 11:02 56.76196 -168.10622 35132 ft 466 kts 264°
2026-04-26 11:02 56.75767 -168.22418 35118 ft 466 kts 264°
2026-04-26 11:03 56.75345 -168.34251 35121 ft 471 kts 259°
2026-04-26 11:03 56.74873 -168.46287 35102 ft 481 kts 259°
2026-04-26 11:04 56.74375 -168.58564 35091 ft 490 kts 259°
2026-04-26 11:04 56.73869 -168.70983 35090 ft 499 kts 259°
2026-04-26 11:05 56.73343 -168.83750 35072 ft 503 kts 259°
2026-04-26 11:05 56.72811 -168.96455 35062 ft 503 kts 259°
2026-04-26 11:06 56.72357 -169.07015 35061 ft 503 kts 259°
2026-04-26 11:06 56.71699 -169.21869 35024 ft 504 kts 259°
2026-04-26 11:07 56.71122 -169.34569 35010 ft 504 kts 259°
2026-04-26 11:07 56.70531 -169.47280 35005 ft 504 kts 259°
2026-04-26 11:08 56.69926 -169.59988 35005 ft 504 kts 259°
2026-04-26 11:08 56.69414 -169.70556 35006 ft 504 kts 259°
2026-04-26 11:09 56.68786 -169.83265 35005 ft 505 kts 259°
2026-04-26 11:09 56.68039 -169.98042 35002 ft 505 kts 259°
2026-04-26 11:10 56.67490 -170.08692 34996 ft 505 kts 258°
2026-04-26 11:10 56.66822 -170.21412 34982 ft 506 kts 258°
2026-04-26 11:11 56.66140 -170.34140 34969 ft 506 kts 258°
2026-04-26 11:11 56.65445 -170.46870 34960 ft 506 kts 258°
2026-04-26 11:12 56.64741 -170.59515 34948 ft 506 kts 258°
2026-04-26 11:12 56.64019 -170.72252 34938 ft 507 kts 258°
2026-04-26 11:13 56.63284 -170.84990 34931 ft 507 kts 258°
2026-04-26 11:13 56.62535 -170.97731 34922 ft 508 kts 258°
2026-04-26 11:14 56.61773 -171.10476 34913 ft 508 kts 258°
2026-04-26 11:14 56.60997 -171.23224 34902 ft 508 kts 258°
2026-04-26 11:15 56.60208 -171.35970 34888 ft 508 kts 258°
2026-04-26 11:15 56.59406 -171.48719 34888 ft 509 kts 258°
2026-04-26 11:16 56.58590 -171.61472 34870 ft 509 kts 258°
2026-04-26 11:16 56.57760 -171.74227 34870 ft 509 kts 258°
2026-04-26 11:17 56.56917 -171.86976 34857 ft 509 kts 258°
2026-04-26 11:17 56.56060 -171.99736 34851 ft 510 kts 258°
2026-04-26 11:18 56.55190 -172.12492 34839 ft 510 kts 258°
2026-04-26 11:18 56.54306 -172.25247 34834 ft 510 kts 258°
2026-04-26 11:19 56.53409 -172.38010 34826 ft 511 kts 258°
2026-04-26 11:19 56.52499 -172.50764 34818 ft 511 kts 258°
2026-04-26 11:20 56.51731 -172.61370 34804 ft 511 kts 258°
2026-04-26 11:20 56.50637 -172.76283 34799 ft 511 kts 258°
2026-04-26 11:21 56.49685 -172.89043 34794 ft 512 kts 258°
2026-04-26 11:21 56.48720 -173.01802 34787 ft 512 kts 258°
2026-04-26 11:22 56.47741 -173.14560 34779 ft 512 kts 258°
2026-04-26 11:22 56.46750 -173.27312 34774 ft 512 kts 257°
2026-04-26 11:23 56.45745 -173.40071 34770 ft 512 kts 257°
2026-04-26 11:23 56.44733 -173.52736 34764 ft 512 kts 257°
2026-04-26 11:24 56.43689 -173.65566 34762 ft 512 kts 256°
2026-04-26 11:24 56.42341 -173.78172 34747 ft 511 kts 253°
2026-04-26 11:25 56.40838 -173.90618 34744 ft 511 kts 253°
2026-04-26 11:25 56.39346 -174.03155 34740 ft 511 kts 254°
2026-04-26 11:26 56.37882 -174.15708 34737 ft 511 kts 254°
2026-04-26 11:26 56.36419 -174.28259 34736 ft 511 kts 254°
2026-04-26 11:27 56.34944 -174.40810 34731 ft 511 kts 254°
2026-04-26 11:27 56.33455 -174.53343 34725 ft 511 kts 254°
2026-04-26 11:28 56.31951 -174.65869 34725 ft 512 kts 254°
2026-04-26 11:28 56.30433 -174.78391 34718 ft 512 kts 254°
2026-04-26 11:29 56.28904 -174.90903 34715 ft 512 kts 254°
2026-04-26 11:29 56.27361 -175.03411 34714 ft 512 kts 254°
2026-04-26 11:30 56.26069 -175.13806 34717 ft 512 kts 253°
2026-04-26 11:30 56.24236 -175.28407 34716 ft 512 kts 254°
2026-04-26 11:31 56.22654 -175.40895 34715 ft 512 kts 253°
2026-04-26 11:31 56.21060 -175.53366 34716 ft 512 kts 253°
2026-04-26 11:32 56.19453 -175.65834 34711 ft 512 kts 253°
2026-04-26 11:32 56.17833 -175.78300 34713 ft 513 kts 253°
2026-04-26 11:33 56.16200 -175.90754 34715 ft 513 kts 253°
2026-04-26 11:33 56.14553 -176.03203 34714 ft 513 kts 253°
2026-04-26 11:34 56.12891 -176.15653 34712 ft 513 kts 253°
2026-04-26 11:34 56.11230 -176.28007 34714 ft 513 kts 253°
2026-04-26 11:35 56.09545 -176.40444 34716 ft 514 kts 253°
2026-04-26 11:35 56.08121 -176.50852 34717 ft 514 kts 253°
2026-04-26 11:36 56.06129 -176.65296 34715 ft 514 kts 253°
2026-04-26 11:36 56.04403 -176.77718 34719 ft 515 kts 252°
2026-04-26 11:37 56.02661 -176.90140 34718 ft 515 kts 252°
2026-04-26 11:37 56.00908 -177.02555 34727 ft 515 kts 252°
2026-04-26 11:38 55.99141 -177.14962 34729 ft 515 kts 253°
2026-04-26 11:38 55.97362 -177.27352 34728 ft 515 kts 253°
2026-04-26 11:39 55.95571 -177.39739 34731 ft 515 kts 252°
2026-04-26 11:39 55.93766 -177.52119 34737 ft 516 kts 253°
2026-04-26 11:40 55.91948 -177.64486 34742 ft 516 kts 252°
2026-04-26 11:40 55.90118 -177.76849 34756 ft 516 kts 252°
2026-04-26 11:42 55.82658 -178.26292 34788 ft 517 kts 252°
2026-04-26 11:43 55.80759 -178.38632 34795 ft 517 kts 252°
2026-04-26 11:43 55.78850 -178.50934 34811 ft 516 kts 252°
2026-04-26 11:44 55.76936 -178.63216 34822 ft 516 kts 252°
2026-04-26 11:44 55.75006 -178.75486 34837 ft 515 kts 252°
2026-04-26 11:45 55.73067 -178.87725 34846 ft 515 kts 252°
2026-04-26 11:45 55.71119 -178.99942 34865 ft 515 kts 252°
2026-04-26 11:46 55.69158 -179.12137 34874 ft 514 kts 252°
2026-04-26 11:46 55.67188 -179.24307 34887 ft 514 kts 252°
2026-04-26 11:47 55.65208 -179.36452 34905 ft 513 kts 252°
2026-04-26 11:47 55.63218 -179.48578 34916 ft 513 kts 252°
2026-04-26 11:48 55.61232 -179.60590 34927 ft 512 kts 252°
2026-04-26 11:48 55.59224 -179.72653 34943 ft 511 kts 251°
2026-04-26 11:49 55.57205 -179.84706 34957 ft 511 kts 251°
2026-04-26 11:49 55.55175 -179.96728 34968 ft 510 kts 251°
2026-04-26 11:50 55.53137 179.91292 34980 ft 510 kts 251°
2026-04-26 11:50 55.51089 179.79321 35002 ft 509 kts 251°
2026-04-26 11:51 55.49031 179.67362 35013 ft 509 kts 251°
2026-04-26 11:51 55.46963 179.55446 35025 ft 508 kts 251°
2026-04-26 11:52 55.45238 179.45548 35038 ft 509 kts 251°
2026-04-26 11:52 55.42797 179.31636 35056 ft 509 kts 251°
2026-04-26 11:53 55.40695 179.19754 35067 ft 508 kts 251°
2026-04-26 11:54 55.37522 179.01959 35095 ft 508 kts 251°
2026-04-26 11:54 55.35394 178.90131 35106 ft 507 kts 251°
2026-04-26 11:55 55.33257 178.78316 35119 ft 507 kts 251°
2026-04-26 11:55 55.31112 178.66518 35131 ft 507 kts 251°
2026-04-26 11:56 55.28975 178.54800 35147 ft 507 kts 251°
2026-04-26 11:56 55.26818 178.43028 35145 ft 507 kts 251°
2026-04-26 11:57 55.24648 178.31264 35160 ft 507 kts 251°
2026-04-26 11:57 55.22820 178.21424 35170 ft 507 kts 251°
2026-04-26 11:58 55.20626 178.09689 35182 ft 507 kts 251°
2026-04-26 11:58 55.18426 177.97978 35212 ft 506 kts 250°
2026-04-26 11:59 55.16214 177.86281 35206 ft 506 kts 250°
2026-04-26 11:59 55.14008 177.74692 35220 ft 505 kts 250°
2026-04-26 12:00 55.11779 177.63054 35238 ft 505 kts 250°
2026-04-26 12:00 55.09541 177.51438 35239 ft 505 kts 250°
2026-04-26 12:01 55.07292 177.39833 35254 ft 504 kts 250°
2026-04-26 12:01 55.05036 177.28255 35268 ft 504 kts 250°
2026-04-26 12:02 55.02770 177.16696 35275 ft 504 kts 250°
2026-04-26 12:02 55.00492 177.05144 35286 ft 504 kts 250°
2026-04-26 12:03 54.98203 176.93609 35292 ft 504 kts 250°
2026-04-26 12:03 54.95901 176.82082 35303 ft 504 kts 250°
2026-04-26 12:04 54.93590 176.70573 35309 ft 504 kts 250°
2026-04-26 12:04 54.91266 176.59064 35322 ft 504 kts 249°
2026-04-26 12:05 54.88933 176.47580 35329 ft 504 kts 249°
2026-04-26 12:05 54.86587 176.36102 35341 ft 505 kts 249°
2026-04-26 12:06 54.84228 176.24631 35351 ft 505 kts 249°
2026-04-26 12:06 54.81859 176.13169 35358 ft 505 kts 249°
2026-04-26 12:07 54.79495 176.01797 35370 ft 505 kts 249°
2026-04-26 12:07 54.77106 175.90364 35377 ft 505 kts 249°
2026-04-26 12:08 54.74706 175.78942 35384 ft 505 kts 249°
2026-04-26 12:08 54.72294 175.67540 35388 ft 505 kts 249°
2026-04-26 12:09 54.69872 175.56155 35400 ft 504 kts 249°
2026-04-26 12:09 54.67440 175.44782 35411 ft 504 kts 249°
2026-04-26 12:10 54.65001 175.33431 35420 ft 504 kts 248°
2026-04-26 12:10 54.62549 175.22093 35425 ft 504 kts 248°
2026-04-26 12:11 54.60087 175.10768 35432 ft 504 kts 248°
2026-04-26 12:11 54.57618 174.99471 35445 ft 504 kts 248°
2026-04-26 12:12 54.55135 174.88178 35454 ft 504 kts 248°
2026-04-26 12:12 54.52645 174.76906 35461 ft 504 kts 248°
2026-04-26 12:13 54.50144 174.65655 35469 ft 503 kts 248°
2026-04-26 12:13 54.47631 174.54411 35479 ft 503 kts 248°
2026-04-26 12:14 54.45109 174.43182 35486 ft 503 kts 248°
2026-04-26 12:14 54.42580 174.31979 35493 ft 503 kts 248°
2026-04-26 12:15 54.40040 174.20792 35497 ft 503 kts 248°
2026-04-26 12:15 54.37490 174.09618 35506 ft 503 kts 248°
2026-04-26 12:16 54.34932 173.98468 35513 ft 502 kts 248°
2026-04-26 12:16 54.32364 173.87336 35519 ft 502 kts 248°
2026-04-26 12:17 54.29789 173.76229 35528 ft 502 kts 247°
2026-04-26 12:17 54.27203 173.65129 35536 ft 502 kts 247°
2026-04-26 12:18 54.24610 173.54063 35541 ft 501 kts 247°
2026-04-26 12:18 54.22008 173.43011 35549 ft 501 kts 247°
2026-04-26 12:19 54.19396 173.31980 35556 ft 501 kts 247°
2026-04-26 12:19 54.16793 173.21041 35563 ft 500 kts 247°
2026-04-26 12:20 54.14165 173.10051 35567 ft 500 kts 247°
2026-04-26 12:20 54.11527 172.99073 35573 ft 500 kts 247°
2026-04-26 12:21 54.08880 172.88116 35581 ft 500 kts 247°
2026-04-26 12:21 54.06225 172.77177 35584 ft 500 kts 247°
2026-04-26 12:22 54.03560 172.66252 35591 ft 500 kts 247°
2026-04-26 12:22 54.00886 172.55350 35598 ft 499 kts 247°
2026-04-26 12:23 53.98204 172.44466 35603 ft 499 kts 247°
2026-04-26 12:23 53.95513 172.33601 35605 ft 499 kts 247°
2026-04-26 12:24 53.92814 172.22755 35614 ft 499 kts 247°
2026-04-26 12:24 53.90105 172.11922 35618 ft 499 kts 246°
2026-04-26 12:25 53.86027 171.95714 35625 ft 498 kts 246°
2026-04-26 12:25 53.83295 171.84923 35632 ft 498 kts 247°
2026-04-26 12:26 53.80556 171.74152 35638 ft 498 kts 246°
2026-04-26 12:26 53.77804 171.63386 35642 ft 498 kts 246°
2026-04-26 12:27 53.75044 171.52641 35649 ft 498 kts 246°
2026-04-26 12:27 53.72275 171.41913 35652 ft 498 kts 246°
2026-04-26 12:28 53.69495 171.31193 35662 ft 498 kts 246°
2026-04-26 12:28 53.66706 171.20487 35661 ft 499 kts 246°
2026-04-26 12:29 53.63908 171.09794 35667 ft 499 kts 246°
2026-04-26 12:30 53.59708 170.93850 35675 ft 498 kts 246°
2026-04-26 12:30 53.56886 170.83197 35677 ft 498 kts 246°
2026-04-26 12:31 53.52635 170.67246 35685 ft 498 kts 246°
2026-04-26 12:31 53.49792 170.56630 35689 ft 498 kts 246°
2026-04-26 12:32 53.46939 170.46035 35693 ft 498 kts 246°
2026-04-26 12:33 53.42643 170.30169 35702 ft 498 kts 246°
2026-04-26 12:33 53.39770 170.19622 35703 ft 497 kts 246°
2026-04-26 12:34 53.36887 170.09085 35704 ft 497 kts 246°
2026-04-26 12:34 53.33999 169.98567 35718 ft 497 kts 246°
2026-04-26 12:35 53.31100 169.88069 35707 ft 497 kts 246°
2026-04-26 12:35 53.28194 169.77595 35712 ft 497 kts 246°
2026-04-26 12:36 53.25279 169.67137 35727 ft 497 kts 245°
2026-04-26 12:36 53.22091 169.56898 35716 ft 497 kts 243°
2026-04-26 12:37 53.18759 169.46793 35730 ft 497 kts 242°
2026-04-26 12:37 53.15447 169.36679 35732 ft 497 kts 243°
2026-04-26 12:38 53.12162 169.26553 35734 ft 497 kts 243°
2026-04-26 12:38 53.08884 169.16434 35740 ft 497 kts 243°
2026-04-26 12:39 53.05598 169.06329 35740 ft 497 kts 243°
2026-04-26 12:39 53.02300 168.96237 35745 ft 497 kts 243°
2026-04-26 12:40 52.98996 168.86169 35749 ft 497 kts 242°
2026-04-26 12:40 52.95681 168.76117 35754 ft 497 kts 242°
2026-04-26 12:41 52.92362 168.66093 36103 ft 494 kts 242°
2026-04-26 12:41 52.90710 168.61130 36398 ft 491 kts 242°
2026-04-26 12:41 52.89061 168.56178 36622 ft 491 kts 242°
2026-04-26 12:41 52.87409 168.51229 36806 ft 491 kts 242°
2026-04-26 12:42 52.85759 168.46289 36986 ft 491 kts 242°
2026-04-26 12:42 52.84105 168.41349 37163 ft 491 kts 242°
2026-04-26 12:42 52.83009 168.38083 37288 ft 490 kts 242°
2026-04-26 12:42 52.80816 168.31560 37506 ft 490 kts 242°
2026-04-26 12:43 52.79696 168.28235 37614 ft 490 kts 242°
2026-04-26 12:43 52.77494 168.21711 37770 ft 492 kts 242°
2026-04-26 12:43 52.75823 168.16769 37782 ft 495 kts 242°
2026-04-26 12:44 52.72453 168.06843 37785 ft 496 kts 242°
2026-04-26 12:44 52.69625 167.98546 37784 ft 495 kts 242°
2026-04-26 12:45 52.66245 167.88665 37791 ft 495 kts 242°
2026-04-26 12:45 52.62864 167.78813 37792 ft 494 kts 242°
2026-04-26 12:46 52.59495 167.69038 37798 ft 494 kts 242°
2026-04-26 12:46 52.56097 167.59215 37798 ft 494 kts 242°
2026-04-26 12:47 52.52693 167.49419 37805 ft 494 kts 242°
2026-04-26 12:47 52.49285 167.39641 37815 ft 494 kts 242°
2026-04-26 12:48 52.45866 167.29869 37814 ft 494 kts 242°
2026-04-26 12:48 52.42439 167.20119 37820 ft 494 kts 242°
2026-04-26 12:49 52.39005 167.10383 37823 ft 494 kts 242°
2026-04-26 12:49 52.35563 167.00666 37831 ft 493 kts 242°
2026-04-26 12:50 52.32113 166.90970 37832 ft 493 kts 242°
2026-04-26 12:50 52.28656 166.81279 37836 ft 493 kts 241°
2026-04-26 12:51 52.25190 166.71607 37836 ft 493 kts 241°
2026-04-26 12:51 52.21720 166.61957 37856 ft 493 kts 241°
2026-04-26 12:52 52.18241 166.52320 37841 ft 493 kts 241°
2026-04-26 12:52 52.14752 166.42697 37855 ft 493 kts 241°
2026-04-26 12:53 52.11283 166.33161 37856 ft 493 kts 241°
2026-04-26 12:53 52.07781 166.23573 37862 ft 493 kts 241°
2026-04-26 12:54 52.04272 166.14001 37863 ft 493 kts 241°
2026-04-26 12:54 52.00757 166.04449 37868 ft 492 kts 241°
2026-04-26 12:55 51.97238 165.94922 37868 ft 492 kts 241°
2026-04-26 12:55 51.93716 165.85421 37873 ft 492 kts 241°
2026-04-26 12:56 51.90186 165.75935 37878 ft 491 kts 241°
2026-04-26 12:56 51.86652 165.66474 37880 ft 491 kts 241°
2026-04-26 12:57 51.83110 165.57028 37883 ft 491 kts 240°
2026-04-26 12:57 51.79563 165.47600 37886 ft 491 kts 240°
2026-04-26 12:58 51.74236 165.33510 37891 ft 490 kts 240°
2026-04-26 12:58 51.70675 165.24134 37892 ft 490 kts 240°
2026-04-26 12:59 51.67112 165.14786 37889 ft 489 kts 240°
2026-04-26 12:59 51.63565 165.05515 37895 ft 489 kts 240°
2026-04-26 13:00 51.59990 164.96204 37900 ft 489 kts 240°
2026-04-26 13:00 51.56411 164.86916 37898 ft 489 kts 240°
2026-04-26 13:01 51.52825 164.77646 37907 ft 488 kts 240°
2026-04-26 13:01 51.49234 164.68393 37901 ft 488 kts 240°
2026-04-26 13:02 51.45641 164.59170 37898 ft 488 kts 240°
2026-04-26 13:02 51.42042 164.49965 37914 ft 487 kts 240°
2026-04-26 13:03 51.38438 164.40780 37910 ft 487 kts 240°
2026-04-26 13:03 51.34828 164.31611 37908 ft 486 kts 240°
2026-04-26 13:04 51.31220 164.22479 37913 ft 486 kts 240°
2026-04-26 13:04 51.27602 164.13356 37916 ft 486 kts 240°
2026-04-26 13:05 51.23980 164.04252 37918 ft 486 kts 240°
2026-04-26 13:05 51.20352 163.95171 37921 ft 485 kts 240°
2026-04-26 13:06 51.16714 163.86112 37921 ft 485 kts 240°
2026-04-26 13:06 51.13074 163.77077 37924 ft 485 kts 240°
2026-04-26 13:07 51.09428 163.68057 37925 ft 484 kts 240°
2026-04-26 13:07 51.05779 163.59059 37929 ft 484 kts 240°
2026-04-26 13:08 51.02125 163.50082 37933 ft 484 kts 240°
2026-04-26 13:08 50.98465 163.41120 37930 ft 484 kts 240°
2026-04-26 13:09 50.94801 163.32179 37933 ft 483 kts 240°
2026-04-26 13:09 50.91132 163.23255 37937 ft 483 kts 240°
2026-04-26 13:10 50.87483 163.14409 37940 ft 483 kts 240°
2026-04-26 13:10 50.83806 163.05525 37944 ft 482 kts 240°
2026-04-26 13:11 50.80121 162.96656 37941 ft 482 kts 240°
2026-04-26 13:11 50.76435 162.87812 37947 ft 482 kts 239°
2026-04-26 13:12 50.72743 162.78984 37951 ft 481 kts 239°
2026-04-26 13:12 50.69048 162.70180 37952 ft 481 kts 239°
2026-04-26 13:13 50.65348 162.61393 37946 ft 481 kts 239°
2026-04-26 13:13 50.61645 162.52627 37955 ft 480 kts 239°
2026-04-26 13:14 50.57936 162.43877 37951 ft 480 kts 239°
2026-04-26 13:14 50.54224 162.35150 37961 ft 480 kts 239°
2026-04-26 13:15 50.50510 162.26447 37963 ft 479 kts 239°
2026-04-26 13:15 50.47417 162.19222 37963 ft 479 kts 239°
2026-04-26 13:16 50.43067 162.09091 37967 ft 479 kts 239°
2026-04-26 13:16 50.39343 162.00450 37967 ft 478 kts 239°
2026-04-26 13:17 50.33751 161.87528 37967 ft 477 kts 239°
2026-04-26 13:18 50.28156 161.74663 37983 ft 476 kts 239°
2026-04-26 13:19 50.22555 161.61847 37986 ft 476 kts 239°
2026-04-26 13:19 50.18843 161.53386 37984 ft 475 kts 239°
2026-04-26 13:20 50.15103 161.44891 37988 ft 475 kts 239°
2026-04-26 13:20 50.11362 161.36419 37989 ft 474 kts 239°
2026-04-26 13:21 50.07620 161.27972 37995 ft 474 kts 239°
2026-04-26 13:21 50.03875 161.19545 37998 ft 473 kts 239°
2026-04-26 13:22 50.00132 161.11150 38002 ft 472 kts 239°
2026-04-26 13:22 49.96388 161.02780 38006 ft 471 kts 239°
2026-04-26 13:23 49.92643 160.94435 38013 ft 471 kts 239°
2026-04-26 13:23 49.88898 160.86113 38006 ft 470 kts 239°
2026-04-26 13:24 49.85151 160.77814 38017 ft 469 kts 239°
2026-04-26 13:24 49.81420 160.69529 38019 ft 469 kts 239°
2026-04-26 13:25 49.77724 160.61234 38034 ft 468 kts 239°
2026-04-26 13:25 49.74027 160.52962 38030 ft 467 kts 239°
2026-04-26 13:26 49.70322 160.44717 38029 ft 467 kts 239°
2026-04-26 13:26 49.66613 160.36498 38034 ft 466 kts 239°
2026-04-26 13:27 49.62900 160.28300 38035 ft 466 kts 239°
2026-04-26 13:27 49.59187 160.20123 38036 ft 465 kts 239°
2026-04-26 13:28 49.55469 160.11962 38040 ft 465 kts 239°
2026-04-26 13:28 49.51752 160.03827 38038 ft 464 kts 239°
2026-04-26 13:29 49.48029 159.95704 38047 ft 464 kts 239°
2026-04-26 13:29 49.44305 159.87603 38047 ft 464 kts 239°
2026-04-26 13:30 49.40576 159.79516 38049 ft 464 kts 239°
2026-04-26 13:30 49.36842 159.71443 38057 ft 464 kts 239°
2026-04-26 13:31 49.33093 159.63481 38059 ft 464 kts 238°
2026-04-26 13:31 49.29199 159.55584 38060 ft 464 kts 238°
2026-04-26 13:32 49.25294 159.47723 38064 ft 464 kts 238°
2026-04-26 13:32 49.21400 159.39862 38069 ft 463 kts 238°
2026-04-26 13:33 49.18146 159.33287 38073 ft 463 kts 238°
2026-04-26 13:33 49.14264 159.25457 38073 ft 462 kts 238°
2026-04-26 13:34 49.10408 159.17701 38077 ft 461 kts 238°
2026-04-26 13:34 49.06531 159.09927 38081 ft 460 kts 238°
2026-04-26 13:35 49.02651 159.02173 38083 ft 460 kts 238°
2026-04-26 13:35 48.98773 158.94446 38089 ft 459 kts 238°
2026-04-26 13:36 48.94892 158.86739 38108 ft 458 kts 238°
2026-04-26 13:36 48.91012 158.79050 38090 ft 458 kts 238°
2026-04-26 13:37 48.87130 158.71377 38098 ft 458 kts 238°
2026-04-26 13:37 48.83244 158.63722 38098 ft 457 kts 238°
2026-04-26 13:38 48.79360 158.56091 38101 ft 457 kts 238°
2026-04-26 13:38 48.75473 158.48476 38102 ft 456 kts 238°
2026-04-26 13:39 48.71584 158.40881 38106 ft 456 kts 238°
2026-04-26 13:39 48.67697 158.33310 38111 ft 455 kts 238°
2026-04-26 13:40 48.63813 158.25766 38110 ft 454 kts 238°
2026-04-26 13:40 48.59927 158.18237 38116 ft 453 kts 238°
2026-04-26 13:41 48.56073 158.10793 38111 ft 453 kts 238°
2026-04-26 13:41 48.52193 158.03321 38137 ft 452 kts 238°
2026-04-26 13:42 48.48321 157.95883 38120 ft 450 kts 238°
2026-04-26 13:42 48.44450 157.88469 38119 ft 450 kts 238°
2026-04-26 13:43 48.40585 157.81086 38123 ft 449 kts 238°
2026-04-26 13:43 48.36721 157.73724 38125 ft 448 kts 238°
2026-04-26 13:44 48.32860 157.66387 38124 ft 447 kts 238°
2026-04-26 13:44 48.29001 157.59075 38128 ft 446 kts 238°
2026-04-26 13:45 48.25142 157.51782 38131 ft 446 kts 238°
2026-04-26 13:45 48.21284 157.44512 38129 ft 445 kts 238°
2026-04-26 13:46 48.17431 157.37271 38131 ft 444 kts 238°
2026-04-26 13:46 48.13576 157.30044 38133 ft 443 kts 238°
2026-04-26 13:47 48.09724 157.22842 38134 ft 443 kts 238°
2026-04-26 13:47 48.05873 157.15662 38133 ft 442 kts 238°
2026-04-26 13:48 48.02025 157.08506 38133 ft 441 kts 238°
2026-04-26 13:48 47.98179 157.01373 38131 ft 441 kts 238°
2026-04-26 13:49 47.94333 156.94260 38132 ft 440 kts 238°
2026-04-26 13:49 47.90490 156.87169 38137 ft 439 kts 238°
2026-04-26 13:50 47.86649 156.80101 38141 ft 439 kts 238°
2026-04-26 13:50 47.82806 156.73048 38152 ft 438 kts 238°
2026-04-26 13:51 47.78964 156.66015 38143 ft 438 kts 238°
2026-04-26 13:51 47.75119 156.58993 38141 ft 438 kts 238°
2026-04-26 13:52 47.71272 156.51987 38143 ft 437 kts 238°
2026-04-26 13:52 47.67449 156.45042 38145 ft 437 kts 238°
2026-04-26 13:53 47.63600 156.38066 38143 ft 437 kts 237°
2026-04-26 13:53 47.59745 156.31100 38147 ft 437 kts 237°
2026-04-26 13:54 47.55888 156.24148 38146 ft 437 kts 237°
2026-04-26 13:54 47.52026 156.17208 38144 ft 437 kts 237°
2026-04-26 13:55 47.46885 156.07995 38152 ft 436 kts 237°
2026-04-26 13:56 47.40430 155.96468 38152 ft 436 kts 237°
2026-04-26 13:56 47.36564 155.89586 38150 ft 435 kts 237°
2026-04-26 13:57 47.32698 155.82725 38161 ft 435 kts 237°
2026-04-26 13:57 47.28828 155.75873 38153 ft 435 kts 237°
2026-04-26 13:58 47.24963 155.69044 38149 ft 434 kts 237°
2026-04-26 13:58 47.21096 155.62233 38152 ft 433 kts 237°
2026-04-26 13:59 47.17229 155.55437 38149 ft 433 kts 237°
2026-04-26 13:59 47.13363 155.48661 38146 ft 432 kts 237°
2026-04-26 14:00 47.05634 155.35159 38155 ft 432 kts 237°
2026-04-26 14:01 47.01766 155.28429 38159 ft 431 kts 237°
2026-04-26 14:01 46.97899 155.21716 38152 ft 431 kts 237°
2026-04-26 14:02 46.94029 155.15015 38156 ft 431 kts 237°
2026-04-26 14:02 46.90159 155.08330 38150 ft 431 kts 236°
2026-04-26 14:03 46.86286 155.01656 38152 ft 430 kts 236°
2026-04-26 14:03 46.82437 154.95041 38151 ft 430 kts 236°
2026-04-26 14:04 46.78563 154.88397 38153 ft 430 kts 236°
2026-04-26 14:04 46.74683 154.81761 38154 ft 430 kts 236°
2026-04-26 14:05 46.70803 154.75141 38153 ft 430 kts 236°
2026-04-26 14:05 46.66919 154.68527 38154 ft 430 kts 236°
2026-04-26 14:06 46.63029 154.61921 38152 ft 430 kts 236°
2026-04-26 14:06 46.59135 154.55324 38142 ft 430 kts 236°
2026-04-26 14:07 46.55231 154.48726 38156 ft 430 kts 236°
2026-04-26 14:07 46.51322 154.42136 38158 ft 431 kts 236°
2026-04-26 14:08 46.47408 154.35552 38153 ft 431 kts 236°
2026-04-26 14:08 46.43484 154.28969 38151 ft 432 kts 236°
2026-04-26 14:09 46.39554 154.22391 38152 ft 432 kts 235°
2026-04-26 14:09 46.35614 154.15812 38150 ft 432 kts 235°
2026-04-26 14:10 46.31666 154.09235 38150 ft 433 kts 235°
2026-04-26 14:10 46.27711 154.02662 38152 ft 433 kts 235°
2026-04-26 14:11 46.21762 153.92807 38150 ft 434 kts 235°
2026-04-26 14:11 46.17789 153.86243 38163 ft 434 kts 235°
2026-04-26 14:12 46.13833 153.79725 38158 ft 435 kts 234°
2026-04-26 14:12 46.09845 153.73168 38169 ft 435 kts 234°
2026-04-26 14:13 46.03855 153.63353 38156 ft 435 kts 234°
2026-04-26 14:14 45.99857 153.56818 38157 ft 435 kts 234°
2026-04-26 14:14 45.95852 153.50289 38152 ft 435 kts 234°
2026-04-26 14:15 45.91844 153.43770 38155 ft 435 kts 234°
2026-04-26 14:15 45.87834 153.37264 38155 ft 435 kts 234°
2026-04-26 14:16 45.83805 153.30780 38156 ft 435 kts 233°
2026-04-26 14:16 45.79753 153.24319 38155 ft 435 kts 233°
2026-04-26 14:17 45.75700 153.17871 38150 ft 435 kts 233°
2026-04-26 14:17 45.71648 153.11433 38151 ft 435 kts 233°
2026-04-26 14:18 45.67594 153.05002 38157 ft 435 kts 233°
2026-04-26 14:18 45.63535 152.98579 38155 ft 435 kts 233°
2026-04-26 14:19 45.59475 152.92170 38153 ft 435 kts 233°
2026-04-26 14:19 45.55414 152.85774 38156 ft 435 kts 233°
2026-04-26 14:20 45.52033 152.80461 38153 ft 435 kts 233°
2026-04-26 14:20 45.47965 152.74082 38155 ft 435 kts 233°
2026-04-26 14:21 45.43894 152.67711 38150 ft 435 kts 233°
2026-04-26 14:21 45.39823 152.61356 38150 ft 434 kts 233°
2026-04-26 14:22 45.35749 152.55012 38158 ft 434 kts 233°
2026-04-26 14:22 45.31674 152.48679 38150 ft 434 kts 233°
2026-04-26 14:23 45.27597 152.42357 38149 ft 434 kts 232°
2026-04-26 14:23 45.23519 152.36051 38151 ft 433 kts 232°
2026-04-26 14:24 45.19442 152.29760 38148 ft 433 kts 232°
2026-04-26 14:24 45.15361 152.23475 38151 ft 433 kts 232°
2026-04-26 14:25 45.11309 152.17251 38152 ft 433 kts 232°
2026-04-26 14:25 45.07229 152.10996 38151 ft 432 kts 232°
2026-04-26 14:26 45.03120 152.04711 38148 ft 432 kts 232°
2026-04-26 14:26 44.99063 151.98522 38148 ft 432 kts 232°
2026-04-26 14:27 44.94980 151.92304 38153 ft 432 kts 232°
2026-04-26 14:27 44.90894 151.86098 38154 ft 431 kts 232°
2026-04-26 14:28 44.86807 151.79905 38153 ft 431 kts 232°
2026-04-26 14:28 44.82719 151.73722 38152 ft 431 kts 232°
2026-04-26 14:29 44.78631 151.67555 38149 ft 431 kts 232°
2026-04-26 14:29 44.74535 151.61389 38148 ft 431 kts 232°
2026-04-26 14:30 44.70441 151.55238 38151 ft 431 kts 232°
2026-04-26 14:30 44.66346 151.49100 38153 ft 430 kts 232°
2026-04-26 14:31 44.62249 151.42973 38153 ft 430 kts 232°
2026-04-26 14:31 44.58149 151.36855 38148 ft 430 kts 232°
2026-04-26 14:32 44.54050 151.30752 38151 ft 430 kts 232°
2026-04-26 14:32 44.49950 151.24660 38151 ft 429 kts 232°
2026-04-26 14:33 44.45850 151.18582 38146 ft 429 kts 232°
2026-04-26 14:33 44.41748 151.12515 38149 ft 429 kts 232°
2026-04-26 14:34 44.37646 151.06460 38150 ft 428 kts 232°
2026-04-26 14:34 44.33573 151.00462 38141 ft 428 kts 232°
2026-04-26 14:35 44.29472 150.94436 38150 ft 428 kts 232°
2026-04-26 14:35 44.25371 150.88422 38153 ft 427 kts 232°
2026-04-26 14:36 44.21267 150.82418 38153 ft 427 kts 232°
2026-04-26 14:36 44.17168 150.76433 38154 ft 427 kts 232°
2026-04-26 14:37 44.13071 150.70462 38147 ft 426 kts 232°
2026-04-26 14:37 44.08974 150.64507 38147 ft 426 kts 232°
2026-04-26 14:38 44.04874 150.58559 38148 ft 426 kts 232°
2026-04-26 14:38 44.00773 150.52623 38151 ft 425 kts 232°
2026-04-26 14:39 43.96675 150.46703 38152 ft 425 kts 232°
2026-04-26 14:39 43.92577 150.40797 38148 ft 425 kts 232°
2026-04-26 14:40 43.88480 150.34904 38151 ft 424 kts 232°
2026-04-26 14:40 43.84385 150.29026 38153 ft 423 kts 232°
2026-04-26 14:41 43.80290 150.23161 38154 ft 423 kts 232°
2026-04-26 14:41 43.76199 150.17314 38152 ft 423 kts 232°
2026-04-26 14:42 43.72109 150.11480 38153 ft 422 kts 232°
2026-04-26 14:42 43.68020 150.05660 38150 ft 422 kts 232°
2026-04-26 14:43 43.63930 149.99851 38155 ft 421 kts 232°
2026-04-26 14:43 43.59846 149.94061 38153 ft 421 kts 232°
2026-04-26 14:44 43.55791 149.88326 38154 ft 420 kts 232°
2026-04-26 14:44 43.51711 149.82568 38160 ft 420 kts 232°
2026-04-26 14:45 43.47636 149.76827 38156 ft 419 kts 232°
2026-04-26 14:45 43.43560 149.71099 38158 ft 418 kts 232°
2026-04-26 14:46 43.39489 149.65388 38156 ft 418 kts 232°
2026-04-26 14:46 43.35421 149.59692 38158 ft 417 kts 232°
2026-04-26 14:47 43.31356 149.54011 38152 ft 417 kts 232°
2026-04-26 14:47 43.27291 149.48342 38157 ft 416 kts 232°
2026-04-26 14:48 43.23234 149.42694 38166 ft 415 kts 232°
2026-04-26 14:48 43.19281 149.37205 38164 ft 415 kts 232°
2026-04-26 14:49 43.15231 149.31592 38157 ft 414 kts 232°
2026-04-26 14:49 43.11183 149.25993 38153 ft 413 kts 232°
2026-04-26 14:50 43.07143 149.20416 38148 ft 412 kts 232°
2026-04-26 14:50 43.03110 149.14859 38150 ft 411 kts 232°
2026-04-26 14:51 42.99082 149.09320 38156 ft 411 kts 232°
2026-04-26 14:51 42.95058 149.03797 38152 ft 410 kts 232°
2026-04-26 14:52 42.91036 148.98289 38155 ft 409 kts 232°
2026-04-26 14:52 42.87051 148.92841 38158 ft 408 kts 232°
2026-04-26 14:53 42.83043 148.87373 38155 ft 407 kts 232°
2026-04-26 14:53 42.79041 148.81924 38160 ft 406 kts 232°
2026-04-26 14:54 42.75045 148.76493 38154 ft 405 kts 232°
2026-04-26 14:54 42.71056 148.71083 38154 ft 404 kts 232°
2026-04-26 14:55 42.67076 148.65695 38157 ft 403 kts 232°
2026-04-26 14:55 42.63105 148.60330 38161 ft 402 kts 233°
2026-04-26 14:56 42.59145 148.54989 38153 ft 401 kts 233°
2026-04-26 14:56 42.55195 148.49673 38154 ft 399 kts 233°
2026-04-26 14:57 42.51262 148.44389 38155 ft 397 kts 233°
2026-04-26 14:57 42.47344 148.39134 38159 ft 395 kts 233°
2026-04-26 14:58 42.43443 148.33913 38154 ft 393 kts 233°
2026-04-26 14:58 42.39560 148.28725 38151 ft 391 kts 233°
2026-04-26 14:59 42.35694 148.23569 38150 ft 389 kts 233°
2026-04-26 14:59 42.31846 148.18446 38154 ft 387 kts 234°
2026-04-26 15:00 42.28023 148.13367 38157 ft 384 kts 234°
2026-04-26 15:00 42.24227 148.08333 38158 ft 381 kts 234°
2026-04-26 15:01 42.20455 148.03339 38157 ft 379 kts 234°
2026-04-26 15:01 42.16732 147.98417 38161 ft 376 kts 234°
2026-04-26 15:02 42.13002 147.93494 38158 ft 374 kts 234°
2026-04-26 15:02 42.09289 147.88601 38162 ft 373 kts 234°
2026-04-26 15:03 42.05585 147.83731 38163 ft 371 kts 235°
2026-04-26 15:03 42.01892 147.78893 38158 ft 370 kts 235°
2026-04-26 15:04 41.98214 147.74086 38161 ft 368 kts 235°
2026-04-26 15:04 41.94549 147.69302 38160 ft 367 kts 235°
2026-04-26 15:05 41.90895 147.64541 38160 ft 365 kts 235°
2026-04-26 15:05 41.87252 147.59800 38150 ft 365 kts 235°
2026-04-26 15:06 41.83611 147.55069 38164 ft 364 kts 235°
2026-04-26 15:06 41.79971 147.50349 38166 ft 364 kts 235°
2026-04-26 15:07 41.74511 147.43283 38164 ft 364 kts 235°
2026-04-26 15:07 41.70869 147.38581 38161 ft 364 kts 235°
2026-04-26 15:08 41.67227 147.33886 38166 ft 364 kts 235°
2026-04-26 15:08 41.64195 147.29985 38165 ft 364 kts 235°
2026-04-26 15:09 41.60550 147.25300 38164 ft 364 kts 235°
2026-04-26 15:09 41.56899 147.20615 38167 ft 364 kts 235°
2026-04-26 15:10 41.53863 147.16726 38162 ft 364 kts 234°
2026-04-26 15:10 41.49588 147.11259 38166 ft 364 kts 234°
2026-04-26 15:11 41.45930 147.06587 38169 ft 364 kts 234°
2026-04-26 15:11 41.42268 147.01919 38162 ft 364 kts 234°
2026-04-26 15:12 41.38601 146.97251 38167 ft 364 kts 234°
2026-04-26 15:12 41.34935 146.92594 38166 ft 364 kts 234°
2026-04-26 15:13 41.31266 146.87942 38162 ft 364 kts 234°
2026-04-26 15:13 41.27592 146.83291 38161 ft 364 kts 234°
2026-04-26 15:14 41.23920 146.78648 38160 ft 364 kts 233°
2026-04-26 15:14 41.20248 146.74014 38165 ft 364 kts 233°
2026-04-26 15:15 41.16574 146.69385 38159 ft 364 kts 233°
2026-04-26 15:15 41.12903 146.64767 38153 ft 364 kts 233°
2026-04-26 15:16 41.09230 146.60154 38155 ft 363 kts 233°
2026-04-26 15:16 41.05584 146.55582 38157 ft 364 kts 233°
2026-04-26 15:17 41.02504 146.51726 38159 ft 363 kts 233°
2026-04-26 15:17 40.98232 146.46385 38164 ft 363 kts 233°
2026-04-26 15:18 40.94554 146.41796 38154 ft 363 kts 232°
2026-04-26 15:18 40.90877 146.37215 38155 ft 363 kts 232°
2026-04-26 15:19 40.87198 146.32637 38152 ft 363 kts 232°
2026-04-26 15:19 40.83515 146.28064 38156 ft 363 kts 232°
2026-04-26 15:20 40.79828 146.23492 38152 ft 364 kts 232°
2026-04-26 15:20 40.76138 146.18923 38149 ft 364 kts 232°
2026-04-26 15:21 40.72443 146.14356 38147 ft 364 kts 232°
2026-04-26 15:21 40.68740 146.09786 38151 ft 365 kts 231°
2026-04-26 15:22 40.65033 146.05220 38150 ft 365 kts 231°
2026-04-26 15:22 40.61321 146.00653 38147 ft 365 kts 231°
2026-04-26 15:23 40.57605 145.96090 38147 ft 365 kts 231°
2026-04-26 15:23 40.53886 145.91530 38145 ft 366 kts 231°
2026-04-26 15:24 40.50161 145.86970 38142 ft 366 kts 231°
2026-04-26 15:24 40.46429 145.82409 38142 ft 366 kts 231°
2026-04-26 15:25 40.43327 145.78623 38144 ft 366 kts 231°
2026-04-26 15:25 40.38958 145.73299 38142 ft 367 kts 231°
2026-04-26 15:26 40.35208 145.68736 38140 ft 368 kts 230°
2026-04-26 15:26 40.31452 145.64174 38135 ft 368 kts 230°
2026-04-26 15:27 40.27688 145.59610 38135 ft 369 kts 230°
2026-04-26 15:27 40.23916 145.55044 38135 ft 370 kts 230°
2026-04-26 15:28 40.20135 145.50474 38131 ft 370 kts 230°
2026-04-26 15:28 40.16350 145.45906 38133 ft 371 kts 230°
2026-04-26 15:29 40.12559 145.41338 38131 ft 371 kts 230°
2026-04-26 15:30 40.04981 145.32229 38131 ft 372 kts 230°
2026-04-26 15:30 40.01175 145.27667 38128 ft 372 kts 229°
2026-04-26 15:31 39.95460 145.20826 38128 ft 372 kts 229°
2026-04-26 15:32 39.90357 145.14734 38139 ft 372 kts 229°
2026-04-26 15:32 39.85922 145.09448 38128 ft 372 kts 229°
2026-04-26 15:33 39.82104 145.04906 38128 ft 372 kts 229°
2026-04-26 15:33 39.78284 145.00369 38119 ft 372 kts 229°
2026-04-26 15:34 39.74468 144.95842 38120 ft 372 kts 229°
2026-04-26 15:34 39.70647 144.91316 38119 ft 372 kts 229°
2026-04-26 15:35 39.66823 144.86796 38122 ft 372 kts 229°
2026-04-26 15:35 39.62997 144.82279 38116 ft 372 kts 229°
2026-04-26 15:36 39.59168 144.77767 38113 ft 372 kts 229°
2026-04-26 15:36 39.55339 144.73261 38113 ft 372 kts 229°
2026-04-26 15:37 39.51506 144.68758 38112 ft 372 kts 229°
2026-04-26 15:37 39.47673 144.64262 38112 ft 372 kts 229°
2026-04-26 15:38 39.43841 144.59772 38113 ft 372 kts 228°
2026-04-26 15:38 39.40010 144.55293 38109 ft 371 kts 228°
2026-04-26 15:39 39.36176 144.50816 38115 ft 371 kts 228°
2026-04-26 15:39 39.32987 144.47098 38108 ft 371 kts 228°
2026-04-26 15:40 39.28505 144.41880 38108 ft 371 kts 228°
2026-04-26 15:40 39.24666 144.37419 38105 ft 371 kts 228°
2026-04-26 15:41 39.20827 144.32962 38107 ft 371 kts 228°
2026-04-26 15:41 39.16989 144.28516 38106 ft 371 kts 228°
2026-04-26 15:42 39.13145 144.24068 38096 ft 371 kts 228°
2026-04-26 15:42 39.09300 144.19627 38102 ft 371 kts 228°
2026-04-26 15:43 39.05454 144.15191 38101 ft 371 kts 227°
2026-04-26 15:44 38.99707 144.08575 38097 ft 371 kts 227°
2026-04-26 15:44 38.93929 144.01938 38114 ft 371 kts 227°
2026-04-26 15:45 38.88142 143.95306 38108 ft 374 kts 227°
2026-04-26 15:46 38.82226 143.88534 38102 ft 384 kts 227°
2026-04-26 15:46 38.79546 143.85477 38100 ft 386 kts 227°
2026-04-26 15:47 38.72180 143.77094 38096 ft 387 kts 227°
2026-04-26 15:48 38.68154 143.72520 38096 ft 387 kts 227°
2026-04-26 15:48 38.66140 143.70235 38098 ft 386 kts 239°
2026-04-26 15:48 38.64762 143.68332 38066 ft 375 kts 229°
2026-04-26 15:49 38.60812 143.63840 38063 ft 390 kts 219°
2026-04-26 15:49 38.58345 143.62273 38044 ft 406 kts 208°
2026-04-26 15:49 38.55623 143.61187 38041 ft 409 kts 208°
2026-04-26 15:50 38.50294 143.58716 38091 ft 407 kts 211°
2026-04-26 15:50 38.45088 143.55920 38091 ft 405 kts 212°
2026-04-26 15:51 38.39931 143.53047 38092 ft 405 kts 212°
2026-04-26 15:51 38.34766 143.50184 38084 ft 405 kts 212°
2026-04-26 15:52 38.29594 143.47341 38084 ft 405 kts 212°
2026-04-26 15:52 38.24416 143.44509 38081 ft 405 kts 212°
2026-04-26 15:53 38.19227 143.41676 38084 ft 406 kts 212°
2026-04-26 15:53 38.14912 143.39323 38085 ft 406 kts 212°
2026-04-26 15:54 38.09717 143.36496 38083 ft 406 kts 211°
2026-04-26 15:54 38.03678 143.33214 38080 ft 406 kts 211°
2026-04-26 15:55 37.98478 143.30393 38081 ft 407 kts 211°
2026-04-26 15:55 37.94154 143.28051 38077 ft 407 kts 211°
2026-04-26 15:56 37.88917 143.25217 38074 ft 407 kts 211°
2026-04-26 15:56 37.83709 143.22409 38072 ft 407 kts 211°
2026-04-26 15:57 37.78536 143.19623 38070 ft 407 kts 211°
2026-04-26 15:57 37.73324 143.16815 38068 ft 408 kts 211°
2026-04-26 15:58 37.68099 143.14005 38068 ft 408 kts 211°
2026-04-26 15:58 37.62868 143.11198 38064 ft 409 kts 211°
2026-04-26 15:59 37.57624 143.08391 38069 ft 409 kts 211°
2026-04-26 15:59 37.52378 143.05587 38066 ft 410 kts 211°
2026-04-26 16:00 37.47126 143.02786 38242 ft 410 kts 215°
2026-04-26 16:00 37.44502 143.01383 38049 ft 409 kts 211°
2026-04-26 16:00 37.41884 142.99983 38066 ft 410 kts 210°
2026-04-26 16:01 37.36624 142.97186 38068 ft 411 kts 210°
2026-04-26 16:01 37.31362 142.94395 38062 ft 411 kts 210°
2026-04-26 16:02 37.26088 142.91608 38059 ft 411 kts 210°
2026-04-26 16:02 37.20817 142.88814 38063 ft 411 kts 210°
2026-04-26 16:03 37.15544 142.86022 38053 ft 411 kts 210°
2026-04-26 16:03 37.10369 142.83038 38057 ft 407 kts 214°
2026-04-26 16:04 37.05420 142.79635 38061 ft 405 kts 216°
2026-04-26 16:04 37.00514 142.76164 38058 ft 405 kts 216°
2026-04-26 16:05 36.95656 142.72725 38056 ft 395 kts 216°
2026-04-26 16:05 36.90903 142.69377 38052 ft 390 kts 216°
2026-04-26 16:06 36.86177 142.66047 38053 ft 390 kts 216°
2026-04-26 16:06 36.81478 142.62745 38047 ft 390 kts 216°
2026-04-26 16:07 36.76745 142.59426 38049 ft 390 kts 216°
2026-04-26 16:07 36.72010 142.56113 38046 ft 390 kts 216°
2026-04-26 16:08 36.67268 142.52799 38050 ft 390 kts 216°
2026-04-26 16:08 36.62530 142.49492 37949 ft 391 kts 216°
2026-04-26 16:08 36.60163 142.47842 37679 ft 391 kts 216°
2026-04-26 16:09 36.57790 142.46188 37404 ft 392 kts 216°
2026-04-26 16:09 36.55406 142.44527 37141 ft 393 kts 216°
2026-04-26 16:09 36.53015 142.42863 36881 ft 394 kts 215°
2026-04-26 16:09 36.50616 142.41194 36612 ft 396 kts 215°
2026-04-26 16:10 36.48208 142.39521 36355 ft 397 kts 215°
2026-04-26 16:10 36.45792 142.37844 36103 ft 398 kts 215°
2026-04-26 16:10 36.43366 142.36162 35854 ft 400 kts 215°
2026-04-26 16:10 36.40938 142.34478 35603 ft 401 kts 214°
2026-04-26 16:11 36.38496 142.32788 35358 ft 402 kts 214°
2026-04-26 16:11 36.36045 142.31091 35111 ft 404 kts 214°
2026-04-26 16:11 36.33590 142.29392 34863 ft 405 kts 214°
2026-04-26 16:11 36.31126 142.27688 34633 ft 406 kts 214°
2026-04-26 16:12 36.28651 142.25979 34404 ft 408 kts 214°
2026-04-26 16:12 36.26168 142.24269 34163 ft 409 kts 214°
2026-04-26 16:12 36.21176 142.20826 33638 ft 412 kts 214°
2026-04-26 16:13 36.18666 142.19095 33371 ft 414 kts 214°
2026-04-26 16:13 36.16151 142.17363 33107 ft 415 kts 214°
2026-04-26 16:13 36.13620 142.15621 32844 ft 417 kts 214°
2026-04-26 16:13 36.11161 142.13731 32584 ft 415 kts 219°
2026-04-26 16:14 36.08905 142.11518 32332 ft 414 kts 225°
2026-04-26 16:14 36.06912 142.08974 32070 ft 413 kts 231°
2026-04-26 16:14 36.03847 142.02970 31578 ft 415 kts 243°
2026-04-26 16:15 36.02619 141.99739 31325 ft 417 kts 244°
2026-04-26 16:15 36.01441 141.96462 31075 ft 418 kts 245°
2026-04-26 16:15 36.00280 141.93167 30855 ft 419 kts 245°
2026-04-26 16:16 35.97947 141.86553 30373 ft 422 kts 245°
2026-04-26 16:16 35.96760 141.83231 30137 ft 423 kts 245°
2026-04-26 16:16 35.95657 141.79862 29870 ft 425 kts 249°
2026-04-26 16:16 35.94858 141.76337 29585 ft 428 kts 255°
2026-04-26 16:17 35.94441 141.72696 29304 ft 430 kts 262°
2026-04-26 16:17 35.94328 141.69001 29047 ft 431 kts 264°
2026-04-26 16:17 35.94309 141.65311 28778 ft 430 kts 265°
2026-04-26 16:17 35.94335 141.61623 28522 ft 430 kts 265°
2026-04-26 16:18 35.94376 141.57935 28261 ft 429 kts 266°
2026-04-26 16:18 35.94450 141.50596 27749 ft 427 kts 265°
2026-04-26 16:19 35.94493 141.43271 27254 ft 426 kts 265°
2026-04-26 16:19 35.94507 141.39671 27005 ft 425 kts 265°
2026-04-26 16:19 35.94525 141.33555 26594 ft 425 kts 265°
2026-04-26 16:20 35.94536 141.28735 26273 ft 424 kts 266°
2026-04-26 16:20 35.94550 141.21455 25782 ft 424 kts 266°
2026-04-26 16:20 35.94560 141.17822 25555 ft 424 kts 266°
2026-04-26 16:21 35.94566 141.14183 25326 ft 423 kts 266°
2026-04-26 16:21 35.94568 141.10553 25082 ft 423 kts 266°
2026-04-26 16:21 35.94570 141.06924 24855 ft 423 kts 266°
2026-04-26 16:21 35.94571 141.03296 24626 ft 423 kts 266°
2026-04-26 16:22 35.94642 140.99669 24387 ft 425 kts 271°
2026-04-26 16:22 35.95172 140.96058 24154 ft 431 kts 281°
2026-04-26 16:22 35.96302 140.92614 23943 ft 437 kts 291°
2026-04-26 16:22 35.97766 140.89307 23726 ft 440 kts 295°
2026-04-26 16:23 35.99358 140.86079 23427 ft 440 kts 297°
2026-04-26 16:23 36.00999 140.82917 22839 ft 435 kts 298°
2026-04-26 16:23 36.02643 140.79801 22218 ft 431 kts 298°
2026-04-26 16:23 36.04273 140.76703 21570 ft 429 kts 298°
2026-04-26 16:24 36.05882 140.73615 20928 ft 426 kts 298°
2026-04-26 16:24 36.07466 140.70542 20341 ft 422 kts 298°
2026-04-26 16:24 36.09030 140.67488 19762 ft 420 kts 299°
2026-04-26 16:24 36.10588 140.64449 19163 ft 418 kts 299°
2026-04-26 16:25 36.12136 140.61415 18566 ft 416 kts 300°
2026-04-26 16:25 36.13670 140.58400 17924 ft 413 kts 300°
2026-04-26 16:25 36.15195 140.55401 17299 ft 410 kts 300°
2026-04-26 16:25 36.16706 140.52423 16698 ft 407 kts 300°
2026-04-26 16:26 36.18203 140.49467 16103 ft 404 kts 299°
2026-04-26 16:26 36.19188 140.47517 15705 ft 402 kts 299°
2026-04-26 16:26 36.20753 140.43378 14928 ft 394 kts 282°
2026-04-26 16:26 36.21091 140.40089 14644 ft 390 kts 270°
2026-04-26 16:27 36.21159 140.36676 14332 ft 392 kts 269°
2026-04-26 16:27 36.21190 140.33305 14018 ft 392 kts 269°
2026-04-26 16:27 36.21122 140.29947 13690 ft 389 kts 262°
2026-04-26 16:27 36.20454 140.26779 13366 ft 385 kts 245°
2026-04-26 16:28 36.19012 140.24025 13066 ft 381 kts 227°
2026-04-26 16:28 36.16949 140.21998 12763 ft 380 kts 209°
2026-04-26 16:28 36.14479 140.20883 12461 ft 379 kts 191°
2026-04-26 16:28 36.11852 140.20783 12155 ft 380 kts 173°
2026-04-26 16:29 36.09255 140.21348 11846 ft 378 kts 173°
2026-04-26 16:29 36.06637 140.21399 11538 ft 375 kts 186°
2026-04-26 16:29 36.04055 140.20989 11241 ft 373 kts 188°
2026-04-26 16:29 36.01479 140.20629 10947 ft 372 kts 184°
2026-04-26 16:30 35.98898 140.20529 10764 ft 371 kts 181°
2026-04-26 16:30 35.96316 140.20486 10577 ft 370 kts 181°
2026-04-26 16:30 35.93748 140.20450 10411 ft 365 kts 181°
2026-04-26 16:30 35.91265 140.20414 10246 ft 349 kts 181°
2026-04-26 16:31 35.88888 140.20379 10070 ft 335 kts 181°
2026-04-26 16:31 35.86606 140.20346 9865 ft 322 kts 181°
2026-04-26 16:31 35.84410 140.20314 9672 ft 310 kts 181°
2026-04-26 16:31 35.82298 140.20284 9487 ft 298 kts 180°
2026-04-26 16:32 35.80275 140.20253 9334 ft 286 kts 180°
2026-04-26 16:32 35.78972 140.20233 9239 ft 278 kts 180°
2026-04-26 16:32 35.76387 140.20254 9057 ft 277 kts 178°
2026-04-26 16:32 35.74463 140.20357 8912 ft 277 kts 177°
2026-04-26 16:33 35.72538 140.20464 8758 ft 277 kts 177°
2026-04-26 16:33 35.70615 140.20565 8615 ft 276 kts 177°
2026-04-26 16:33 35.68706 140.20660 8472 ft 271 kts 177°
2026-04-26 16:33 35.66864 140.20749 8352 ft 260 kts 177°
2026-04-26 16:34 35.65094 140.20831 8218 ft 249 kts 177°
2026-04-26 16:34 35.63398 140.20909 8091 ft 240 kts 177°
2026-04-26 16:34 35.61762 140.20980 8003 ft 229 kts 178°
2026-04-26 16:34 35.60173 140.20996 8003 ft 228 kts 179°
2026-04-26 16:35 35.58581 140.20996 8002 ft 229 kts 179°
2026-04-26 16:35 35.56985 140.20998 8000 ft 229 kts 179°
2026-04-26 16:35 35.55390 140.21005 7998 ft 229 kts 179°
2026-04-26 16:35 35.53795 140.21014 7997 ft 229 kts 179°
2026-04-26 16:36 35.52200 140.21026 7991 ft 229 kts 179°
2026-04-26 16:36 35.50606 140.21101 7988 ft 229 kts 172°
2026-04-26 16:36 35.49113 140.21754 7983 ft 230 kts 146°
2026-04-26 16:36 35.47954 140.23104 7988 ft 231 kts 131°
2026-04-26 16:37 35.46948 140.24648 7987 ft 232 kts 128°
2026-04-26 16:37 35.45959 140.26219 7987 ft 233 kts 128°
2026-04-26 16:37 35.44963 140.27784 7985 ft 233 kts 129°
2026-04-26 16:37 35.44297 140.28816 7983 ft 233 kts 129°
2026-04-26 16:38 35.42910 140.30812 7973 ft 232 kts 139°
2026-04-26 16:38 35.41564 140.31928 7976 ft 231 kts 151°
2026-04-26 16:38 35.40156 140.32816 7977 ft 230 kts 153°
2026-04-26 16:38 35.38717 140.33681 7976 ft 230 kts 154°
2026-04-26 16:39 35.37277 140.34547 7978 ft 230 kts 154°
2026-04-26 16:39 35.35826 140.35381 7968 ft 231 kts 159°
2026-04-26 16:39 35.34263 140.35794 7971 ft 231 kts 174°
2026-04-26 16:39 35.32663 140.35902 7974 ft 230 kts 177°
2026-04-26 16:40 35.31061 140.35958 7969 ft 230 kts 177°
2026-04-26 16:40 35.29439 140.36013 7966 ft 230 kts 177°
2026-04-26 16:40 35.27856 140.36072 7967 ft 230 kts 177°
2026-04-26 16:40 35.26258 140.36009 7962 ft 231 kts 189°
2026-04-26 16:41 35.25230 140.35597 7955 ft 232 kts 206°
2026-04-26 16:41 35.23765 140.33726 7901 ft 235 kts 240°
2026-04-26 16:41 35.23105 140.31889 7838 ft 236 kts 246°
2026-04-26 16:41 35.22514 140.30014 7751 ft 236 kts 246°
2026-04-26 16:42 35.21923 140.28138 7683 ft 236 kts 246°
2026-04-26 16:42 35.21518 140.26873 7632 ft 236 kts 246°
2026-04-26 16:42 35.20912 140.24998 7551 ft 237 kts 245°
2026-04-26 16:42 35.20459 140.23063 7478 ft 239 kts 260°
2026-04-26 16:43 35.20372 140.21035 7406 ft 240 kts 267°
2026-04-26 16:43 35.20382 140.19021 7336 ft 240 kts 268°
2026-04-26 16:43 35.20402 140.16982 7266 ft 240 kts 268°
2026-04-26 16:43 35.20418 140.14944 7190 ft 240 kts 268°
2026-04-26 16:44 35.20430 140.12908 7114 ft 239 kts 268°
2026-04-26 16:44 35.20439 140.10873 7043 ft 239 kts 268°
2026-04-26 16:44 35.20446 140.08840 6969 ft 239 kts 268°
2026-04-26 16:44 35.20454 140.06804 6895 ft 239 kts 268°
2026-04-26 16:45 35.20457 140.04770 6821 ft 239 kts 268°
2026-04-26 16:45 35.20460 140.02738 6750 ft 239 kts 268°
2026-04-26 16:45 35.20466 140.00703 6669 ft 239 kts 268°
2026-04-26 16:45 35.20468 139.98672 6597 ft 239 kts 268°
2026-04-26 16:46 35.20464 139.96638 6522 ft 239 kts 268°
2026-04-26 16:46 35.20468 139.94607 6451 ft 239 kts 268°
2026-04-26 16:46 35.20474 139.92575 6377 ft 239 kts 268°
2026-04-26 16:46 35.20474 139.90545 6303 ft 239 kts 268°
2026-04-26 16:47 35.20475 139.88515 6224 ft 239 kts 268°
2026-04-26 16:47 35.20476 139.86489 6152 ft 238 kts 268°
2026-04-26 16:47 35.20484 139.84469 6070 ft 236 kts 271°
2026-04-26 16:47 35.20829 139.82507 5999 ft 238 kts 296°
2026-04-26 16:48 35.21912 139.81010 5934 ft 237 kts 329°
2026-04-26 16:48 35.23427 139.80266 5698 ft 234 kts 345°
2026-04-26 16:48 35.25007 139.79776 5390 ft 234 kts 347°
2026-04-26 16:48 35.26582 139.79315 5088 ft 233 kts 347°
2026-04-26 16:49 35.28149 139.78845 4788 ft 229 kts 346°
2026-04-26 16:49 35.29681 139.78376 4368 ft 227 kts 346°
2026-04-26 16:49 35.31240 139.78134 4070 ft 224 kts
2026-04-26 16:49 35.32679 139.78721 3859 ft 218 kts 30°
2026-04-26 16:50 35.33929 139.79764 3639 ft 217 kts 36°
2026-04-26 16:50 35.35138 139.80880 3449 ft 218 kts 37°
2026-04-26 16:50 35.36345 139.81998 3252 ft 217 kts 36°
2026-04-26 16:50 35.37556 139.83107 3053 ft 217 kts 36°
2026-04-26 16:51 35.38767 139.84208 2867 ft 217 kts 36°
2026-04-26 16:51 35.39979 139.85305 2671 ft 217 kts 36°
2026-04-26 16:51 35.41189 139.86341 2551 ft 208 kts 30°
2026-04-26 16:51 35.42511 139.86849 2440 ft 192 kts
2026-04-26 16:52 35.43815 139.86861 2224 ft 187 kts 356°
2026-04-26 16:52 35.44662 139.86697 2078 ft 185 kts 349°
2026-04-26 16:52 35.46274 139.85984 1882 ft 182 kts 335°
2026-04-26 16:52 35.47333 139.85264 1644 ft 173 kts 330°
2026-04-26 16:53 35.48326 139.84510 1504 ft 160 kts 330°
2026-04-26 16:53 35.49263 139.83829 1228 ft 157 kts 328°
2026-04-26 16:53 35.50196 139.83139 896 ft 154 kts 331°
2026-04-26 16:53 35.51124 139.82516 694 ft 149 kts 333°
2026-04-26 16:54 35.52007 139.81890 531 ft 144 kts 331°
2026-04-26 16:54 35.52861 139.81290 380 ft 142 kts 332°
2026-04-26 16:54 35.53719 139.80685 199 ft 141 kts 330°
2026-04-26 16:54 35.54568 139.80077 46 ft 140 kts 332°
2026-04-26 16:55 35.55346 139.79533 34 ft 107 kts 330°
2026-04-26 16:55 35.55730 139.79264 33 ft 20 kts 329°
2026-04-26 16:55 35.55756 139.79246 33 ft 14 kts 330°
2026-04-26 16:55 35.55918 139.79130 33 ft 29 kts 330°
2026-04-26 16:56 35.56139 139.78829 29 ft 7 kts 276°
2026-04-26 16:56 35.56135 139.78748 29 ft 10 kts 278°
2026-04-26 16:56 35.56192 139.78681 30 ft 13 kts 331°
2026-04-26 16:57 35.56279 139.78622 31 ft 16 kts 330°
2026-04-26 16:57 35.56375 139.78549 31 ft 14 kts 320°
2026-04-26 16:57 35.56300 139.78296 31 ft 21 kts 240°
2026-04-26 16:58 35.56220 139.78126 31 ft 24 kts 239°
2026-04-26 16:58 35.56162 139.78004 31 ft 26 kts 240°
2026-04-26 16:58 35.55929 139.77510 29 ft 22 kts 240°
2026-04-26 16:59 35.55890 139.77432 29 ft 10 kts 238°
2026-04-26 16:59 35.55748 139.77257 27 ft 19 kts 215°
2026-04-26 17:00 35.55526 139.77066 27 ft 9 kts 212°
2026-04-26 17:00 35.55375 139.77087 27 ft 16 kts 149°
2026-04-26 17:00 35.55275 139.77163 27 ft 10 kts 149°
2026-04-26 17:01 35.55228 139.77191 28 ft 9 kts 166°
2026-04-26 17:01 35.55167 139.77145 30 ft 13 kts 236°
2026-04-26 17:01 35.55114 139.77044 28 ft 16 kts 238°
2026-04-26 17:01 35.55056 139.76917 28 ft 18 kts 241°
2026-04-26 17:02 35.55009 139.76817 29 ft 9 kts 239°
2026-04-26 17:02 35.55000 139.76797 29 ft 2 kts 238°
2026-04-26 17:02 35.54978 139.76785 29 ft 4 kts 188°
2026-04-26 17:02 35.54952 139.76797 28 ft 0 kts 152°
2026-04-26 17:03 35.54942 139.76803 29 ft 4 kts 153°
2026-04-26 17:03 35.54930 139.76812 29 ft 0 kts 150°
2026-04-26 17:03 35.54922 139.76818 29 ft 0 kts 150°